[{"header": {"dx": 0.06612293990616946, "dy": 0.0552356325346848, "nx": 98, "ny": 59, "la1": 35.046912555036876, "la2": 31.78801023549047, "lo1": -121.43107172385933, "lo2": -114.95102361305473, "refTime": "2026041718", "parameterCategory": 1, "parameterNumber": 2}, "data": [6.81, 6.81, 6.81, 6.64, 8.97, 8.51, 10.05, 11.06, 12.37, 12.51, 12.79, 12.25, 13.67, 9.17, -0.0, -0.0, 2.28, 2.19, 3.68, 6.94, 7.19, 9.17, 8.22, -11.18, -11.18, -11.62, -11.21, -11.2, -10.8, -9.42, -9.77, -9.17, -5.6, -2.71, 0.0, 0.0, 1.54, 3.49, 4.83, 6.17, 0.0, -10.96, -11.4, -12.52, -15.65, -18.33, -22.35, -24.88, -18.76, -13.44, -13.15, -13.56, -13.59, -13.99, -13.99, -12.22, -13.42, -12.52, -12.52, -13.02, -13.02, -8.68, -6.8, -5.64, -6.8, -6.16, -5.65, -5.65, -5.09, -5.09, -5.09, -3.39, -3.39, -1.73, -1.73, -1.73, 0.0, 0.0, 0.0, 1.34, 2.35, 4.58, 5.8, 6.94, 8.53, 9.46, 11.09, 11.06, 10.75, 10.0, 7.78, 3.47, 0.0, 0.0, -2.09, -3.47, -3.85, -3.14, 3.59, 3.59, 6.81, 6.64, 6.47, 8.74, 10.05, 11.06, 11.68, 12.0, 12.03, 13.19, 13.15, 8.85, -0.0, 3.82, 4.8, 3.82, 3.82, 5.98, 9.48, 9.17, 10.79, 9.17, -10.73, -10.84, -10.4, -10.35, -9.42, -10.41, -11.17, -10.82, -6.44, -3.65, -2.21, -4.0, -4.14, -4.0, -2.97, -10.28, -11.87, -12.72, -12.3, -15.11, -19.22, -23.25, -25.48, -19.96, -13.44, -14.18, -13.56, -13.97, -13.97, -13.59, -13.59, -13.42, -13.42, -13.59, -13.99, -14.84, -14.84, -10.75, -6.8, -5.64, -6.8, -6.16, -6.34, -5.65, -5.65, -7.2, -5.23, -3.9, -3.9, -1.89, -1.89, 0.0, 0.0, 0.0, 0.0, 1.34, 2.35, 4.58, 5.8, 6.94, 8.53, 9.46, 11.09, 11.06, 10.75, 10.0, 7.78, 3.47, 0.0, 0.0, -2.09, -3.47, -3.85, -3.14, 3.59, 3.59, 5.8, 5.65, 5.65, 7.8, 9.17, 11.38, 11.68, 12.0, 12.42, 12.46, 13.86, 9.17, 8.22, 6.45, 6.97, 4.32, 4.48, 5.8, 7.26, 8.85, 8.85, 9.48, 9.8, -9.6, -8.58, -7.59, -6.98, -8.22, -10.43, -9.49, -6.4, -4.15, -5.44, -9.26, -8.94, -8.89, -9.33, -10.79, -11.39, -14.23, -17.53, -20.44, -22.35, -21.46, -17.3, -13.31, -14.18, -14.61, -14.42, -14.42, -14.42, -13.03, -12.65, -13.03, -13.03, -14.53, -13.99, -13.99, -13.02, -8.43, -6.8, -5.64, -6.8, -6.16, -7.76, -7.76, -7.76, -7.98, -5.65, -3.9, -1.94, -1.89, 0.0, 0.0, 0.0, 0.0, 0.0, 1.23, 2.35, 3.25, 5.36, 6.21, 6.45, 8.22, 9.7, 10.75, 10.84, 11.5, 13.42, 11.7, 11.38, 0.0, -4.66, -4.87, -4.1, -3.29, 3.59, 3.01, 5.8, 5.65, 5.65, 7.8, 9.42, 10.59, 11.06, 11.33, 11.9, 12.74, 14.3, 10.01, 8.53, 8.22, 6.97, 5.4, 4.32, 6.21, 6.98, 7.9, 7.9, 8.73, 9.42, 12.96, -3.25, -3.65, -1.93, -6.2, -8.53, -9.8, 0.0, 0.0, -12.52, -9.96, -9.55, -9.6, -10.94, -12.87, -15.96, -18.85, -19.57, -17.43, -15.2, -13.77, -13.75, -13.88, -14.18, -14.18, -13.56, -13.59, -13.19, -11.52, -11.52, -12.65, -13.03, -13.42, -14.53, -13.99, -10.75, -6.8, -5.48, -6.6, -8.18, -7.54, -7.76, -9.09, -10.13, -9.48, -6.69, -4.3, -2.21, 0.0, 0.0, 0.0, 0.0, 0.0, 0.0, 1.15, 1.9, 3.25, 4.1, 5.2, 4.54, 6.76, 7.73, 8.93, 9.7, 13.58, 15.33, 16.12, 15.65, -6.6, -6.9, -6.65, -5.27, -4.65, 3.01, 3.01, 5.8, 5.65, 5.65, 8.0, 9.67, 9.42, 9.77, 11.87, 12.65, 13.15, 14.3, 11.6, 9.66, 8.53, 5.98, 6.21, 4.32, 4.48, 7.19, 5.6, 6.45, 8.22, 6.7, 8.53, 12.52, 12.07, 11.18, -0.0, -0.0, -0.0, -0.0, -0.0, -7.93, -11.9, -14.11, -13.15, -15.71, -17.35, -16.99, -15.2, -13.41, -13.86, -13.77, -13.77, -13.88, -13.88, -13.56, -13.97, -12.27, -11.9, -11.17, -10.43, -11.52, -11.52, -13.03, -13.99, -13.99, -13.03, -10.43, -8.58, -5.31, -6.6, -8.18, -8.21, -9.87, -8.77, -9.71, -9.0, -6.91, -4.34, 0.0, 0.0, 1.94, 1.43, 1.53, 0.0, 0.0, 1.03, 1.83, 2.92, 2.93, 2.94, 3.21, 3.68, 5.4, 6.76, 10.02, 12.64, 13.61, 14.84, 14.75, -11.99, -6.67, -6.65, -5.27, -4.65, 5.8, 5.8, 5.8, 4.91, 5.65, 8.0, 7.8, 7.6, 8.28, 9.39, 10.75, 14.03, 14.3, 12.71, 10.01, 6.21, 5.4, 4.48, 4.48, 4.48, 5.2, 6.21, 6.0, 6.0, 5.6, 2.93, 3.82, -0.0, -0.0, -0.0, -0.0, -2.02, -3.82, -7.59, -10.8, -13.32, -13.31, -13.86, -15.2, -14.22, -12.22, -13.75, -13.59, -14.03, -13.96, -14.4, -13.81, -13.39, -12.42, -12.42, -10.65, -9.8, -9.8, -11.17, -11.52, -12.65, -13.19, -13.19, -12.65, -11.52, -9.8, -8.05, -7.59, -8.43, -9.35, -9.87, -10.13, -8.77, -7.6, -7.47, -5.76, -3.95, -2.02, 0.0, 2.02, 3.59, 2.91, 1.29, 0.0, 1.08, 1.98, 2.61, 2.61, 2.82, 3.06, 3.06, 3.98, 5.96, 7.4, 8.0, 9.66, 13.99, 15.65, -9.17, -6.67, -6.65, -5.27, -4.65, 5.04, 5.04, 5.04, 4.91, 4.91, 8.0, 7.8, 6.47, 6.14, 8.68, 10.75, 13.86, 14.03, 12.04, 11.16, 4.32, 3.82, 3.96, 2.06, 4.48, 5.4, 4.98, 7.13, 5.8, 5.6, 2.82, -0.0, -0.0, 3.04, -0.0, -0.0, -1.93, -5.9, -8.05, -10.75, -12.83, -12.52, -13.15, -11.4, -10.14, -12.27, -12.3, -13.15, -13.97, -14.38, -13.89, -14.71, -13.2, -10.65, -11.09, -10.12, -9.8, -11.17, -12.65, -13.28, -13.15, -12.79, -12.79, -12.42, -11.53, -9.48, -6.9, -7.82, -8.93, -9.61, -8.77, -7.6, -6.54, -4.5, -4.7, -4.99, -3.23, -1.3, 0.0, 1.54, 1.54, 2.98, 1.33, 1.21, 2.04, 2.71, 3.81, 3.12, 2.18, 2.31, 3.82, 5.52, 2.84, 0.0, 8.0, 14.79, 17.43, 15.65, -7.44, -6.0, -6.43, -6.08, -4.81, 4.91, 4.91, 4.91, 4.91, 4.91, 5.65, 5.51, 3.33, 4.01, 0.0, 10.75, 13.86, 12.79, 8.05, 3.36, -0.0, -0.0, 1.9, 2.13, 2.45, 3.04, 3.04, 2.54, 5.15, 6.2, 2.93, -0.0, 3.04, -0.0, -0.0, -0.0, -0.0, -3.53, -8.93, -10.75, -11.06, -11.18, -11.06, -12.27, -11.62, -11.18, -11.84, -12.72, -11.9, -12.27, -13.1, -13.02, -12.87, -11.33, -11.44, -10.41, -11.99, -13.15, -13.15, -13.67, -13.67, -13.67, -13.32, -12.33, -10.79, -7.82, -6.9, -9.49, -8.68, -10.3, -9.87, -7.6, -4.95, -3.2, -3.07, -3.51, -1.66, -1.34, 0.0, 0.0, 0.0, 0.0, 1.21, 2.13, 3.22, 4.3, 4.96, 4.34, 3.52, 3.65, 4.42, 5.91, 6.22, -0.0, 9.17, 11.38, 15.27, 13.41, -3.36, -6.0, -5.6, -5.86, -4.81, 6.28, 7.04, 7.04, 4.91, 4.91, 5.65, 3.42, 0.0, 0.0, 0.0, 6.8, 12.39, 7.0, 2.2, -0.0, -0.0, -1.9, -0.0, -0.0, -0.0, -0.0, -0.0, -0.0, -0.0, 2.2, -0.0, -0.0, -0.0, -2.93, -4.8, -4.32, -0.0, -3.04, -10.04, -11.06, -10.18, -10.52, -10.73, -11.62, -11.18, -12.52, -12.27, -11.62, -11.5, -11.9, -11.53, -13.1, -13.05, -12.87, -13.2, -12.65, -11.92, -12.89, -13.72, -13.72, -13.72, -13.72, -12.46, -11.2, -9.77, -7.82, -9.49, -9.49, -9.77, -8.93, -8.43, -8.65, -4.42, -4.05, -4.05, -2.0, -1.83, 0.0, -1.56, 0.0, 0.0, 0.0, 0.99, 2.11, 2.15, 2.52, 5.3, 5.14, 5.67, 5.09, 5.81, 7.8, 16.54, 3.16, 6.8, 9.17, 12.58, 10.79, 0.0, -3.68, -5.6, -4.48, -4.12, 6.12, 6.28, 7.04, 4.91, 4.91, 2.94, 0.0, 0.0, 0.0, 0.0, 4.95, 10.75, 9.8, 3.14, -0.0, -4.24, -4.38, -5.15, -3.36, -0.0, -0.0, -0.0, -0.0, -0.0, -0.0, -0.0, -0.0, -2.28, -4.98, -7.54, -6.44, -4.52, -5.15, -10.04, -11.62, -11.62, -10.58, -8.87, -11.62, -12.52, -12.07, -12.14, -11.09, -10.09, -10.4, -11.33, -11.72, -12.27, -13.42, -13.68, -13.19, -13.81, -13.88, -13.44, -13.44, -14.19, -13.72, -12.46, -11.2, -9.77, -9.22, -10.33, -10.46, -8.93, -8.93, -9.67, -9.92, -8.28, -2.72, -3.47, -2.89, -2.57, -2.65, -2.0, 0.0, 0.0, 1.21, 2.06, 1.83, 0.98, 2.4, 3.47, 7.4, 7.88, 6.64, 7.44, 9.8, 14.3, 10.12, 9.17, 11.12, 12.52, 10.01, 2.54, -3.56, -5.6, -4.81, -4.28, 7.08, 6.12, 7.04, 4.91, 5.65, 2.94, 0.0, 0.0, 0.0, 0.0, 3.79, 10.75, 15.2, 6.4, -3.79, -8.58, -8.18, -10.12, -0.0, -0.0, -0.0, -3.07, -0.0, -0.0, -3.14, -3.39, -3.25, -2.39, -2.02, -6.44, -8.53, -6.48, -5.9, -8.34, -9.6, -11.62, -11.62, -11.62, -11.55, -12.22, -12.58, -11.72, -10.68, -10.35, -10.4, -10.16, -10.8, -11.2, -11.12, -11.5, -13.19, -14.07, -14.07, -14.71, -14.94, -16.22, -16.05, -13.32, -9.58, -9.48, -9.67, -9.92, -9.17, -7.98, -10.3, -13.96, -15.01, -12.64, -8.43, -5.8, -4.38, -4.66, 0.0, -2.65, 0.0, 1.33, 3.06, 3.47, 2.56, 1.17, 1.07, 2.3, 4.42, 8.56, 10.05, 10.43, 12.89, 15.05, 14.3, 13.15, 12.35, 12.52, 11.62, 5.6, -2.2, -5.02, -5.15, -4.58, 6.47, 5.51, 6.28, 4.91, 5.65, 2.94, 0.0, 0.0, 0.0, 0.0, 3.9, 4.95, 11.06, -0.0, -6.8, -13.19, -12.96, 12.52, 13.41, 13.86, -0.0, -0.0, -0.0, -0.0, -4.24, -3.96, -0.0, -0.0, 2.6, -0.0, -6.98, -8.47, -8.47, -9.03, -9.92, -10.68, -10.73, -11.57, -11.4, -11.45, -11.2, -10.8, -10.09, -9.97, -9.2, -8.93, -10.8, -10.41, -10.79, -11.28, -11.72, -13.55, -15.38, -17.25, -17.19, -18.54, -19.64, -18.05, -10.35, -8.66, -9.92, -9.09, -8.65, -7.98, -11.38, -15.64, -17.17, -17.8, -12.07, -9.42, -6.6, 0.0, 0.0, 0.0, 0.0, 1.28, 3.34, 4.66, 4.5, 2.8, 1.34, 1.23, 3.56, 8.0, 11.04, 14.37, 14.95, 14.42, 14.64, 13.86, 12.52, 11.62, 11.62, 11.4, 0.0, -5.11, -4.66, -3.76, 5.96, 7.08, 6.12, 7.04, 4.91, 2.94, 0.0, 0.0, 0.0, 0.0, 0.0, 3.79, 0.0, 16.09, -16.54, -16.54, -15.65, 0.0, 0.0, 13.86, 14.3, 14.75, -0.0, -0.0, -0.0, -0.0, 9.48, 12.3, 9.66, 6.14, -0.0, -9.48, -10.5, -10.5, -11.0, -10.68, -10.73, -11.11, -10.91, -10.46, -10.68, -10.68, -10.0, -8.8, -10.28, -10.73, -11.62, -11.45, -11.6, -11.5, -10.41, -11.72, -12.79, -13.97, -16.66, -17.97, -19.08, -21.17, -11.38, -5.4, -7.98, -7.4, -7.8, -7.2, -11.0, -14.22, -15.8, -17.7, -17.39, -12.88, -10.0, 0.0, 3.47, 4.32, 2.39, 2.52, 4.24, 5.09, 4.62, 4.75, 2.88, 2.72, 3.37, 3.72, 8.13, 12.47, 14.7, 15.33, 14.71, 13.88, 13.44, 11.53, 11.18, 11.62, 10.41, -4.24, -4.1, -3.65, 7.21, 6.47, 5.65, 6.28, 4.91, 2.94, 0.0, 0.0, 0.0, 0.0, 0.0, 0.0, 0.0, 0.0, 16.54, -17.43, 0.0, 0.0, 0.0, 0.0, 0.0, 15.2, 15.2, 15.2, 15.65, 15.2, -0.0, 4.66, 2.72, 1.83, 1.07, -2.95, -10.38, -9.97, -9.97, -10.65, -10.28, -10.28, -10.28, -10.73, -10.73, -10.28, -10.73, -7.27, -0.0, -0.0, 2.28, 5.0, -0.0, -0.0, -12.52, -8.53, -5.4, -0.0, -0.0, -0.0, -15.65, -13.59, -11.04, -3.81, -4.38, -6.16, -6.52, -6.69, -7.4, -10.15, -13.03, -13.28, -15.17, -10.2, -7.49, 0.0, 2.59, 2.49, 2.52, 2.89, 3.24, 3.42, 5.37, 5.37, 5.37, 4.75, 3.52, 3.42, 5.62, 7.92, 10.98, 13.79, 13.95, 14.79, 13.57, 11.03, 11.03, 12.42, 13.28, 3.25, -2.81, -2.54, 6.71, 7.8, 7.26, 6.28, 7.04, 5.04, 2.94, 0.0, 0.0, 0.0, 0.0, 0.0, 0.0, 0.0, 0.0, 0.0, 0.0, 0.0, 0.0, 0.0, 0.0, -11.38, -11.06, -15.65, -15.65, -11.06, -4.81, -4.66, -4.52, -3.65, -3.04, -0.85, -2.19, -8.55, -8.55, -9.75, -10.18, -9.54, -10.6, -9.54, -9.97, -9.6, -6.95, -4.4, -0.0, -0.0, 3.11, 2.49, 2.6, 5.0, 5.2, 2.71, -0.0, -0.0, 2.39, 6.44, 5.2, -11.88, -9.43, -4.79, -1.17, -3.56, -4.38, -5.31, -4.66, -6.8, -11.7, -12.01, -9.66, -9.0, -5.65, 0.0, 2.05, 2.24, 2.4, 1.5, 1.58, 3.51, 3.69, 5.37, 6.12, 6.9, 4.5, 4.58, 4.99, 6.29, 6.8, 7.82, 10.47, 13.46, 14.4, 11.72, 10.8, 11.72, 12.89, 0.0, -1.29, -1.29, 7.8, 7.21, 6.64, 8.0, 6.28, 5.04, 2.94, 2.94, 2.79, 0.0, 0.0, 0.0, 0.0, 0.0, 0.0, 0.0, 0.0, 0.0, 0.0, 0.0, -7.8, -12.01, -14.79, -16.09, -14.84, -11.06, -9.73, -8.43, -7.28, -6.6, -5.99, -4.65, -2.02, -2.6, -2.49, -4.0, -9.75, -9.97, -10.18, -9.75, -8.4, -7.81, -9.2, -4.4, -4.4, -0.0, -0.0, -0.0, -0.0, -0.0, 2.71, 2.82, 2.82, 2.6, 2.97, 5.46, 5.7, -0.0, -6.6, -4.95, -2.16, -4.32, -10.4, -5.4, -0.0, 4.1, 9.17, 12.65, 7.2, -4.77, -5.2, 0.0, 2.07, 1.44, 0.0, 0.0, 0.0, 0.0, 2.02, 4.45, 6.44, 8.2, 6.9, 5.48, 4.48, 5.43, 5.45, 4.55, 4.55, 8.05, 11.06, 9.84, 10.55, 11.99, 10.79, 2.93, 0.0, 0.0, 7.31, 7.8, 8.0, 7.26, 6.28, 7.22, 5.04, 4.91, 2.87, 2.79, 0.0, 0.0, 0.0, 0.0, 0.0, 0.0, 0.0, 0.0, 0.0, 0.0, -7.8, -12.01, -16.12, -16.54, -15.78, -12.57, -11.38, -11.38, -9.88, -9.47, -9.2, -8.18, -5.8, -4.75, -2.83, -2.58, -5.9, -7.59, -8.55, -6.95, -6.95, -4.96, -7.27, -6.32, -4.4, -0.0, -0.0, -0.0, -0.0, -0.0, -0.0, 3.39, 3.53, 5.95, 7.59, 7.27, 8.55, 7.59, -5.4, -5.8, -3.44, -10.0, -3.39, -0.0, -0.0, -0.0, 6.45, 8.22, 13.86, 17.43, -19.59, -12.96, -12.64, -1.74, -2.53, -2.85, -3.16, 0.0, 0.0, 2.07, 5.65, 7.08, 8.25, 6.29, 6.4, 5.64, 7.02, 3.56, 4.71, 8.05, 9.6, 8.73, 8.15, 9.17, 9.48, 4.24, 0.0, 0.0, 8.27, 7.8, 7.4, 8.0, 7.26, 6.44, 7.22, 4.91, 4.79, 2.4, 2.34, 2.28, 2.72, 0.0, 0.0, 0.0, 0.0, 0.0, 0.0, 0.0, 0.0, 0.0, -11.7, -15.78, -15.87, -14.39, -13.76, -13.1, -12.11, -11.38, -11.06, -10.17, -9.57, -7.78, -5.76, -5.7, -5.21, -6.17, -6.95, -5.46, -4.4, -2.39, -3.11, -3.25, -0.0, -0.0, -0.0, -0.0, -0.0, -0.0, -0.0, -0.0, 4.6, 7.27, 7.27, 9.75, 9.75, 10.18, 0.0, -5.0, -5.4, -11.62, -4.8, -0.0, -0.0, -0.0, 5.21, 8.55, 10.04, 7.0, -4.88, -5.4, -3.23, -9.6, -4.79, -5.71, -5.26, -3.09, 0.0, 1.87, 5.01, 6.11, 6.88, 4.81, 6.0, 6.94, 8.44, 5.8, 5.28, 5.02, 5.02, 5.8, 6.16, 6.4, 8.31, 4.55, 1.13, 1.13, 7.8, 8.27, 8.35, 7.8, 7.26, 8.0, 6.44, 7.04, 4.91, 4.79, 2.34, 2.34, 2.34, 2.4, 0.0, 0.0, 0.0, 0.0, 0.0, 0.0, 0.0, 17.43, 16.54, -16.48, -15.49, -14.94, -10.79, -12.37, -12.73, -10.94, -11.29, -11.17, -10.47, -8.97, -8.31, -7.97, -7.27, -7.06, -7.15, -6.44, -3.65, -2.02, -0.0, -0.0, 2.82, -0.0, -0.0, -0.0, -0.0, -0.0, -0.0, -0.0, 4.6, 4.6, 9.2, 9.2, 10.28, 11.18, 0.0, -6.97, -10.4, -8.22, -0.0, -0.0, -0.0, 2.28, 2.97, 7.27, 8.58, 10.12, 9.92, 6.36, 3.82, -24.59, -5.39, -4.93, -5.2, -4.26, -1.21, 1.34, 5.0, 5.86, 4.54, 4.42, 5.09, 6.66, 9.17, 8.53, 5.63, 4.71, 3.47, 2.91, 4.24, 5.08, 6.2, 4.52, 2.72, 2.72, 7.8, 8.27, 7.8, 8.35, 8.0, 7.26, 8.0, 6.28, 6.28, 4.23, 2.4, 2.34, 2.34, 4.67, 3.33, 0.0, 0.0, 0.0, 0.0, -16.54, -17.43, -7.6, -5.37, -13.61, -14.79, -14.38, -13.56, -11.72, -12.11, -11.6, -10.73, -10.73, -10.35, -10.35, -9.97, -9.2, -8.93, -8.58, -8.73, -7.27, -5.52, -1.76, -0.0, 3.07, 6.5, 6.45, -0.0, -4.6, -0.0, -0.0, -0.0, -0.0, -0.0, 5.0, 5.46, 8.18, 11.18, 10.18, 0.0, -6.45, -11.18, -7.59, -0.0, -0.0, -0.0, 2.49, 4.6, 7.9, 9.66, 11.99, 15.2, 18.42, 21.59, 23.59, -4.12, -4.38, -5.47, -6.13, 0.0, 2.25, 4.42, 3.72, 3.82, 2.52, 4.01, 4.95, 6.4, 6.87, 6.88, 5.6, 4.71, 3.01, 3.3, 4.38, 5.15, 4.81, 2.89, 2.89, 8.65, 9.14, 8.78, 8.35, 8.97, 8.47, 8.68, 8.0, 6.28, 6.28, 4.12, 4.01, 4.01, 4.12, 5.37, 4.12, 0.0, 3.79, -0.0, -15.19, -16.54, -13.42, -12.57, -13.97, -15.07, -15.27, -13.99, -13.15, -11.85, -11.21, -10.79, -10.4, -10.4, -10.4, -10.16, -9.77, -10.0, -9.6, -9.32, -8.73, -7.9, -4.15, -1.84, -0.0, 4.08, 5.4, -0.0, -3.25, -3.25, -0.0, -0.0, -0.0, -0.0, 3.53, 5.95, 5.7, 11.18, 10.0, 0.0, -5.0, -11.18, 11.18, -0.0, -0.0, -0.0, 2.6, 4.8, 8.53, 10.37, 13.15, 15.53, 18.19, 22.05, 23.75, 0.0, -2.47, -5.16, -4.68, -1.56, 0.0, 1.34, 1.34, 0.0, 1.03, 2.48, 3.53, 4.98, 6.51, 6.51, 6.4, 6.21, 3.25, 1.63, 2.63, 5.15, 5.48, 2.64, 2.64, 8.43, 8.65, 8.27, 8.78, 8.35, 8.97, 8.47, 8.68, 7.26, 6.12, 4.12, 4.01, 4.01, 4.12, 4.67, 6.31, 3.33, 5.09, -0.0, -13.76, -16.09, -15.2, -14.55, -15.05, -15.97, -16.15, -15.71, -14.42, -13.27, -12.04, -11.21, -10.79, -10.79, -10.62, -10.62, -10.0, -10.4, -10.09, -9.7, -9.3, -7.9, -6.98, -3.53, -1.71, 1.23, 2.6, -0.0, -5.46, -2.49, -0.0, -0.0, -0.0, -0.0, 3.53, 5.95, 6.2, 11.62, 0.0, 0.0, 0.0, 10.28, 10.73, -0.0, -0.0, -0.0, 3.53, 6.45, 8.53, 10.37, 13.19, 15.18, 14.22, -5.75, -8.97, 0.0, -1.04, -3.69, -4.55, 0.0, 0.0, 0.0, -1.27, -1.34, 0.0, 1.3, 2.4, 3.85, 5.31, 6.1, 5.86, 6.4, 4.71, 0.0, 1.42, 4.11, 5.31, 4.24, 4.24, 8.74, 8.74, 8.43, 8.78, 8.78, 8.35, 8.97, 8.47, 8.47, 7.08, 5.37, 3.59, 3.59, 3.59, 4.12, 5.37, 3.33, 5.23, 16.54, -16.99, -16.54, -16.09, -14.75, -14.16, -14.64, -15.55, -15.71, -15.71, -14.56, -13.7, -12.25, -11.85, -11.03, -10.62, -10.4, -10.4, -10.09, -10.09, -9.67, -9.67, -8.22, -7.26, -5.2, -3.19, -0.0, -0.0, -2.6, -4.2, -1.84, -0.0, -0.0, -0.0, -0.0, -0.0, 2.6, 4.8, 7.9, 0.0, 0.0, 0.0, 6.64, 10.28, -0.0, -0.0, -0.0, 6.2, 6.45, 7.9, 10.4, 11.62, 11.53, 17.88, -18.65, -2.28, 0.0, 0.98, 0.0, 0.0, 0.0, 3.16, 0.0, -2.79, -2.38, -1.2, 0.0, 2.28, 3.36, 4.52, 5.19, 5.14, 7.38, 6.4, 1.77, 0.0, 2.81, 5.31, 5.31, 5.31, 8.74, 8.74, 9.19, 9.67, 8.78, 9.36, 8.35, 8.97, 7.8, 8.47, 5.37, 5.23, 5.23, 5.23, 3.69, 4.12, 2.79, 4.01, 0.0, -12.01, -16.48, -16.54, -15.65, -15.2, -14.19, -14.64, -14.84, -15.27, -14.84, -14.42, -13.07, -12.66, -11.85, -11.2, -10.4, -9.7, -9.7, -9.3, -9.67, -9.08, -9.08, -9.08, -7.26, -5.2, -4.58, -2.71, -2.45, -2.19, -2.1, -0.0, -0.0, -0.0, -0.0, -0.0, 2.02, 2.49, 3.82, 8.53, 0.0, 0.0, 0.0, 9.39, -0.0, -0.0, 2.71, 5.4, 5.4, 8.85, 10.0, 10.96, 11.02, -20.56, -21.1, -11.09, 2.34, 3.68, 7.44, 12.96, 10.43, 15.2, 2.65, -1.58, -3.65, -2.19, 0.0, 1.27, 2.52, 4.23, 4.94, 1.78, 5.37, 4.71, 1.96, 0.0, 2.81, 5.31, 4.74, 4.74, 8.74, 8.74, 8.74, 9.19, 8.9, 9.42, 9.36, 9.36, 8.97, 7.8, 6.31, 4.75, 4.75, 4.75, 3.59, 3.69, 2.34, 2.72, 0.0, -9.17, -16.48, -16.99, -16.54, -16.09, -15.08, -14.64, -14.4, -13.99, -14.42, -13.99, -13.48, -13.07, -12.25, -10.99, -10.61, -9.46, -9.09, -9.3, -8.73, -9.08, -8.22, -9.3, -8.73, -7.9, -6.2, -5.32, -4.58, -2.95, -2.7, -1.22, -0.0, -0.0, -0.0, -0.0, 2.02, -0.0, -0.0, 1.62, 5.2, 12.52, 11.18, -0.0, -0.0, -0.0, 2.82, 5.4, 7.24, 9.66, 10.8, 11.62, 13.15, -15.65, -17.1, -9.73, 3.06, 8.35, 12.64, 14.53, 14.3, 12.72, 9.8, 0.0, -3.09, -3.06, -1.6, 0.0, 1.56, 1.7, 1.73, 0.0, 0.0, 3.58, 3.47, 1.83, 2.63, 5.15, 4.74, 4.74, 9.17, 9.17, 9.17, 9.19, 9.19, 8.9, 9.42, 9.12, 9.36, 8.35, 7.6, 6.31, 4.75, 4.75, 3.24, 3.59, 1.83, 2.34, 0.0, -7.4, -15.19, -16.99, -16.99, -16.54, -15.53, -15.08, -14.4, -13.57, -13.57, -13.57, -13.07, -12.66, -11.37, -11.37, -10.61, -9.82, -8.93, -8.59, -7.9, -6.98, -6.71, -6.97, -8.94, -8.73, -8.24, -6.87, -5.77, -4.05, -2.7, -2.39, -2.42, -1.23, -0.0, -0.0, 1.84, -0.0, -0.0, -0.0, -0.0, 3.68, 5.4, 5.4, -0.0, -0.0, 2.71, 4.48, 7.51, 8.85, 12.71, 12.52, 12.07, 0.0, -13.05, -8.48, 0.0, 8.34, 13.45, 14.3, 11.6, 11.62, 13.41, 0.0, -3.33, -3.68, -1.69, 0.0, 0.0, 0.0, 0.0, 0.0, 0.0, 1.65, 3.3, 3.39, 2.72, 4.11, 4.74, 4.74, 8.77, 8.77, 9.17, 9.42, 9.19, 8.9, 8.9, 9.42, 9.12, 9.12, 8.13, 7.03, 5.65, 4.35, 4.35, 3.24, 3.24, 2.05, 0.0, -6.14, -14.79, -16.22, -16.54, -16.54, -16.09, -15.53, -14.84, -13.99, -13.57, -13.15, -12.25, -12.25, -10.99, -10.99, -10.61, -9.5, -9.5, -8.53, -7.73, -5.77, -4.4, -1.64, -2.28, -9.6, -8.93, -7.9, -5.54, -4.05, -2.39, -2.39, -2.33, -2.42, -2.23, -0.0, -0.0, -0.0, -0.0, -0.0, -0.0, 2.02, 6.7, 5.0, -0.0, -0.0, 3.04, 5.2, 8.53, 11.12, 12.79, 12.96, 12.96, 9.48, -9.22, -7.6, -2.22, 5.35, 12.65, 12.29, 9.84, 10.8, 11.4, 7.19, 0.0, -1.94, 0.0, -2.53, -2.11, -3.39, -1.51, -1.34, 0.0, 0.0, 1.73, 1.83, 2.72, 3.76, 4.89, 4.89, 8.77, 8.77, 9.17, 9.42, 9.19, 9.19, 8.9, 8.9, 9.42, 8.56, 7.6, 7.03, 5.81, 5.37, 4.47, 2.96, 3.24, 1.83, 0.0, -2.72, -11.7, -15.36, -16.31, -16.09, -16.09, -15.53, -14.84, -14.84, -13.99, -13.57, -12.66, -12.66, -11.37, -10.99, -10.61, -9.5, -9.5, -8.85, -7.02, -5.99, -4.08, -2.82, -0.0, -4.6, -9.33, -10.05, -7.81, -4.6, -3.45, -2.49, -2.42, -2.33, -2.33, -2.02, -1.07, -0.0, -0.0, -0.0, 1.45, 3.25, 4.15, 2.71, -0.0, 1.98, 4.32, 5.6, 9.48, 11.2, 11.91, 12.96, 14.3, 12.79, -6.0, -6.2, -1.68, 3.86, 10.6, 7.95, 6.2, 7.54, 10.35, 11.03, 9.48, 0.0, 0.0, -3.9, -4.3, -3.39, -3.07, 0.0, 0.0, 0.0, 0.0, 0.0, 1.5, 2.57, 3.69, 3.69, 8.77, 8.77, 9.17, 9.17, 9.42, 9.19, 9.19, 8.9, 8.9, 9.42, 8.56, 7.6, 6.53, 5.37, 5.37, 4.01, 2.96, 3.24, 1.83, 0.0, -9.92, -13.8, -15.27, -16.09, -15.65, -15.65, -15.11, -14.84, -14.4, -13.99, -13.07, -12.66, -12.39, -11.37, -10.55, -9.5, -9.5, -8.15, -7.02, -7.02, -5.2, -4.08, -2.42, -0.0, -2.37, -8.03, -7.13, -5.21, -3.61, -3.61, -3.92, -2.33, -2.23, -2.23, -2.33, -1.18, -0.0, -0.0, 1.33, 3.07, 1.84, -0.0, -0.0, 2.45, 6.21, 8.1, 9.8, 11.2, 11.62, 11.03, 13.67, 13.99, -3.36, -4.24, -2.35, 0.0, 9.8, 6.08, 3.09, 4.88, 5.6, 8.55, 12.52, 12.07, 9.17, -4.24, -3.68, -3.9, -3.16, -1.51, 0.0, 0.0, -1.37, 0.0, 0.0, 2.79, 2.72, 2.72, 8.77, 8.77, 8.77, 9.17, 9.42, 9.19, 9.19, 9.67, 9.67, 9.67, 9.42, 7.12, 7.6, 6.53, 5.37, 4.01, 4.01, 2.96, 1.65, 0.0, -5.09, -11.38, -12.52, -14.84, -15.49, -15.2, -15.2, -15.11, -14.4, -13.99, -13.57, -12.79, -12.39, -11.37, -10.55, -9.5, -8.85, -8.15, -7.02, -7.02, -5.4, -5.2, -3.68, -2.1, -0.0, -3.68, -6.2, -4.6, -3.61, -3.92, -3.92, -3.61, -2.23, -2.23, -1.18, -2.33, -1.09, -0.0, 1.28, 1.39, 1.52, 1.84, 1.98, 4.32, 6.21, 6.44, 7.44, 10.12, 11.18, 7.87, 10.41, 13.41, 0.0, 0.0, -11.7, -8.6, -0.0, 17.43, 2.02, 0.0, 0.0, 3.58, 12.58, 12.52, 11.62, 12.79, -2.72, -1.77, -1.68, 0.0, 0.0, 0.0, -1.42, -1.41, 0.0, 1.34, 2.65, 2.65, 8.77, 8.77, 9.37, 9.78, 9.17, 9.42, 9.19, 9.19, 9.41, 9.41, 9.67, 8.9, 7.12, 7.12, 6.1, 4.86, 3.62, 2.72, 1.5, 0.0, -2.28, -4.95, -11.06, -13.42, -14.42, -15.05, -14.64, -14.75, -14.22, -14.4, -13.81, -12.79, -12.79, -11.28, -10.91, -9.84, -8.85, -8.15, -7.28, -7.02, -5.99, -5.99, -5.2, -3.92, -3.39, -3.32, -4.75, -3.77, -4.05, -3.92, -3.77, -3.61, -2.23, -2.33, -1.18, -1.18, -1.02, -1.16, -0.0, 1.23, 2.71, 3.68, 6.21, 5.98, 6.21, 5.98, 5.98, 7.19, 8.53, 10.28, 6.64, 6.2, 15.65, 10.2, -21.01, -11.45, -5.81, -0.0, 11.7, 0.0, -1.98, 0.0, 8.68, 14.03, 13.86, 14.3, 14.3, 0.0, -2.02, 0.0, 0.0, 0.0, -1.68, -2.57, -1.15, 0.0, 1.21, 1.21, 9.12, 9.12, 9.37, 9.37, 9.17, 9.17, 8.51, 8.94, 8.94, 9.41, 9.41, 9.67, 8.9, 7.12, 6.1, 5.94, 4.73, 3.62, 2.72, 2.88, 0.0, -2.21, -5.81, -10.75, -13.03, -14.11, -14.55, -14.3, -15.49, -13.53, -13.39, -13.39, -12.42, -11.28, -11.28, -9.48, -9.17, -9.17, -7.28, -7.28, -5.99, -6.7, -5.77, -5.77, -5.54, -5.54, -3.07, -2.95, -2.95, -4.4, -3.77, -3.61, -2.33, -2.33, -1.14, -2.02, -1.11, -1.11, -0.0, 1.02, 2.93, 4.58, 5.98, 5.75, 5.98, 5.0, 4.6, 6.45, 8.85, 5.4, 3.25, 4.8, 13.15, 18.78, -29.06, -18.49, -8.94, -0.0, 3.36, 0.0, -5.27, -5.65, 0.0, 9.39, 14.84, 16.09, 15.65, 14.75, 3.47, 0.0, 0.0, 0.0, -1.83, -2.72, -1.23, 0.0, 0.0, 0.0, 9.12, 9.12, 9.12, 9.37, 9.78, 9.17, 9.17, 8.94, 8.94, 9.61, 10.08, 9.41, 8.9, 7.6, 6.69, 5.56, 5.56, 5.41, 4.73, 3.9, 2.8, 0.0, -2.5, -5.64, -9.12, -13.19, -14.75, -13.57, -13.32, -15.05, -13.01, -12.74, -12.03, -12.03, -10.65, -9.8, -9.48, -8.59, -7.54, -6.94, -6.94, -7.82, -7.54, -6.45, -6.2, -5.0, -3.53, -3.39, -3.39, -2.95, -2.49, -2.23, -2.42, -2.33, -1.14, -1.18, -1.18, -1.07, -0.0, -0.0, 2.1, 4.8, 5.2, 3.98, 4.15, 4.15, 3.98, 4.6, 8.22, 9.17, 6.7, 9.3, 11.4, 15.78, -0.0, -22.41, -15.72, -6.6, -0.0, -10.43, -7.2, -6.9, -4.34, 0.0, 10.19, 14.79, 15.97, 15.2, 13.28, 2.63, 0.0, 0.0, 0.0, -1.42, -1.19, -1.26, 0.0, 0.0, 9.12, 9.12, 9.12, 9.12, 9.37, 9.17, 9.17, 9.17, 9.61, 9.61, 9.61, 9.61, 8.94, 8.43, 7.4, 6.52, 5.98, 5.41, 5.41, 4.6, 3.79, 1.51, 0.0, -2.5, -5.48, -12.27, -14.3, -14.11, -14.18, -13.88, -12.89, -12.33, -11.64, -11.53, -10.65, -10.65, -9.8, -8.87, -8.59, -7.19, -5.8, -6.44, -8.85, -9.42, -7.26, -5.0, -3.53, -3.39, -1.76, -1.52, -1.33, -1.23, -1.18, -1.14, -1.28, -0.0, -0.0, -0.0, -0.0, -0.0, 3.96, 4.15, 5.0, 3.53, 2.02, 2.1, 2.1, 3.98, 3.68, 8.85, 8.85, 11.87, 12.52, 15.2, 21.19, -0.0, -21.9, -18.65, -9.67, -17.43, -9.42, -8.25, -5.96, -2.11, 0.0, 11.38, 15.27, 14.84, 13.15, 8.05, 0.0, 0.0, 0.0, -1.48, -1.21, -1.23, 0.0, 0.0, 9.12, 9.12, 9.12, 9.12, 9.12, 9.78, 9.17, 9.17, 9.17, 9.61, 9.61, 9.61, 8.94, 9.19, 8.21, 6.99, 6.81, 5.98, 5.09, 5.41, 4.6, 4.0, 1.68, 0.0, -2.89, -8.18, -13.88, -14.3, -14.3, -14.11, -13.75, -12.39, -11.99, -11.16, -10.47, -9.8, -8.87, -8.87, -7.44, -7.44, -4.24, -2.54, -7.51, -10.35, -8.53, -6.45, -3.53, -1.84, -0.0, -0.0, -0.0, -0.0, -0.0, -1.28, -1.33, -0.0, -0.0, -0.0, -0.0, 1.14, 2.13, 5.98, 6.44, 6.2, 3.53, 3.53, 2.6, 5.0, 5.0, 8.53, 10.01, 13.15, 14.3, 15.65, 19.29, 21.04, 0.0, -17.59, -20.56, -19.22, -10.89, -7.6, -5.49, -3.69, -2.57, 3.58, 10.43, 11.52, 10.47, 7.51, 2.45, 0.0, 0.0, 0.0, -1.29, -1.08, 0.0, 0.0, 8.5, 8.5, 9.12, 9.12, 9.12, 9.52, 9.17, 9.17, 9.17, 9.61, 9.61, 9.61, 9.61, 9.61, 8.94, 7.78, 6.81, 6.81, 5.98, 6.34, 5.26, 4.81, 2.98, 1.63, 0.0, -2.89, -10.12, -13.88, -14.3, -14.3, -14.03, -13.57, -11.88, -10.47, -10.47, -9.48, -9.48, -7.44, -7.44, -6.0, -4.24, -0.0, -0.0, -10.01, -10.04, -6.7, -3.68, -1.64, -0.0, -0.0, -0.0, -0.0, -0.0, -0.0, -0.0, -0.0, -0.0, -0.0, -0.0, 1.14, 2.23, 4.0, 6.44, 6.17, 4.6, 3.53, 4.6, 5.95, 7.9, 7.9, 10.79, 11.6, 15.18, 16.99, 19.22, 17.43, 12.33, -11.8, -18.4, -17.52, -12.07, -6.52, -5.02, -3.14, -3.68, 0.0, 4.81, 6.44, 8.85, 7.78, 3.14, 0.0, 0.0, 0.0, 0.0, 0.0, 0.0, 0.0, 8.5, 8.5, 9.12, 9.12, 9.12, 9.12, 9.17, 9.17, 9.17, 9.17, 10.22, 10.22, 10.22, 9.61, 9.61, 8.51, 7.57, 7.57, 6.81, 5.98, 6.16, 5.46, 4.81, 2.89, 1.83, 0.0, -3.47, -10.12, -13.57, -14.3, -13.88, -12.79, -11.44, -11.09, -9.8, -9.48, -8.38, -7.44, -7.44, -6.0, -4.24, -0.0, 1.77, -3.14, -8.73, -7.73, -4.75, -1.64, -0.0, -0.0, -0.0, -0.0, -1.18, -1.33, -0.0, -0.0, -0.0, -0.0, 1.22, 2.39, 2.13, 3.81, 7.27, 5.9, 6.44, 6.2, 4.4, 5.7, 5.95, 7.59, 10.4, 11.6, 15.18, 18.78, -21.01, -12.64, -6.2, -16.12, -18.6, -18.6, -12.29, -6.87, -5.34, -3.14, -3.32, 0.0, 2.2, 6.67, 7.78, 7.78, 3.14, 0.0, 0.0, 0.0, 0.0, 0.0, 0.0, 0.0, 8.5, 8.5, 8.86, 9.66, 9.12, 9.12, 9.52, 8.93, 9.17, 9.17, 9.78, 9.94, 9.94, 9.94, 9.61, 8.7, 8.28, 7.57, 7.57, 6.81, 7.0, 6.16, 6.8, 5.04, 4.66, 1.77, 0.0, 0.0, -6.4, -14.3, -12.79, -11.9, -10.12, -10.12, -8.31, -8.31, -6.9, -6.9, -6.0, -6.0, -4.24, -1.83, -0.0, -0.0, -4.15, -7.73, -4.75, -1.5, -0.0, -1.39, -1.39, -1.33, -1.33, -1.28, -0.0, -0.0, -0.0, -0.0, 1.16, 2.39, 3.11, 3.81, 6.44, 5.63, 4.4, 3.39, 5.95, 4.6, 5.95, 7.9, 9.3, 12.3, 14.31, 12.33, -22.9, -20.96, -10.43, -14.11, -18.91, -16.37, -9.42, -4.18, -3.69, -3.58, -3.81, 0.0, 2.28, 7.13, 6.9, 6.0, 3.25, 0.0, 0.0, 0.0, 0.0, 0.0, 0.0, 0.0, 8.5, 8.5, 8.86, 9.39, 9.66, 9.12, 9.52, 9.52, 8.93, 9.52, 9.52, 9.94, 10.22, 10.22, 10.22, 9.61, 8.94, 8.28, 8.28, 7.36, 7.36, 6.8, 7.21, 6.6, 6.6, 5.81, 3.93, 2.81, 0.0, 0.0, -14.3, -10.12, -6.4, -7.93, -7.93, -6.4, -6.2, -4.98, -6.9, -4.98, -4.98, -4.1, -1.83, -0.0, -0.0, -4.58, -4.75, -1.71, -0.0, -1.58, -1.39, -1.33, -1.52, -0.0, -0.0, -0.0, -0.0, -0.0, 1.16, 2.28, 2.39, 3.81, 4.42, 6.95, 4.6, 3.25, 4.4, 6.17, 6.44, 7.9, 10.0, 11.4, 13.44, 13.99, -18.66, -26.18, -22.6, -15.47, -14.3, -11.53, -8.38, -4.24, -3.68, -4.71, -3.36, 0.0, 2.02, 4.66, 7.36, 6.2, 3.36, 0.0, 0.0, 0.0, 0.0, 0.0, 0.0, 0.0, 8.5, 8.5, 8.86, 9.39, 9.39, 8.86, 9.52, 9.52, 9.52, 9.52, 9.52, 10.22, 10.22, 10.76, 10.22, 10.22, 9.61, 8.7, 8.28, 8.05, 8.22, 7.54, 7.73, 7.43, 7.92, 7.93, 7.58, 7.93, 6.4, 6.4, 14.3, 13.86, -0.0, -0.0, -4.52, -4.52, -3.36, -6.2, -5.15, -5.15, -4.98, -4.81, -2.54, -2.06, -0.0, -0.0, -3.19, -1.84, -0.0, -0.0, -0.0, -0.0, -0.0, -0.0, -0.0, -0.0, -0.0, -0.0, 1.26, 2.28, 2.28, 2.97, 3.98, 4.4, 3.11, 4.6, 5.46, 7.59, 7.27, 10.0, 10.79, 11.4, 12.3, 11.53, -0.0, -19.95, -29.49, -27.06, -17.88, -11.88, -9.22, -4.66, -4.81, -4.42, -2.0, 0.0, 2.09, 4.66, 5.48, 5.31, 2.81, 0.0, 0.0, 0.0, 0.0, 0.0, 0.0, 0.0, 8.5, 8.5, 9.39, 9.39, 9.39, 8.86, 9.52, 9.52, 9.52, 9.52, 9.78, 10.22, 10.76, 10.76, 10.76, 10.22, 9.61, 9.35, 9.35, 8.46, 8.22, 8.22, 8.4, 8.18, 8.68, 8.46, 9.42, 10.12, 11.17, 12.79, 13.57, 14.3, 10.12, -0.0, -0.0, -0.0, -0.0, -3.47, -3.47, -2.72, -2.72, -2.63, -2.54, -2.54, -2.13, -0.0, -0.0, -0.0, -0.0, -0.0, -0.0, -0.0, -0.0, -0.0, -0.0, -0.0, -0.0, -0.0, 1.26, 1.26, 2.58, 3.14, 3.8, 5.9, 5.46, 6.95, 7.27, 7.27, 9.2, 10.38, 10.79, 8.94, 10.79, 8.85, 4.66, -8.93, -21.06, -31.74, -27.78, -18.4, -13.28, -9.2, -5.8, -3.01, -2.47, 0.0, 2.09, 3.93, 4.66, 5.31, 2.81, 0.0, 0.0, 0.0, 0.0, 0.0, 0.0, 0.0, 8.26, 8.26, 9.39, 9.39, 9.39, 9.39, 9.52, 9.52, 9.52, 9.52, 9.78, 10.22, 10.76, 10.76, 10.76, 10.76, 9.94, 9.35, 9.35, 8.83, 8.83, 8.99, 8.99, 8.85, 9.34, 9.87, 9.5, 10.12, 11.64, 12.79, 13.28, 14.3, 14.3, 12.79, 6.2, 6.4, -0.0, -0.0, -0.0, -0.0, -0.0, -0.0, -0.0, -2.54, -2.54, -0.0, -0.0, -0.0, -0.0, -0.0, -0.0, -0.0, -0.0, -0.0, -0.0, -0.0, 1.47, 1.2, 1.2, 1.26, 2.46, 2.46, 3.52, 6.44, 5.9, 6.95, 8.55, 8.93, 9.55, 10.38, 10.0, 7.59, 5.2, 5.8, 2.63, -0.0, -12.64, -23.69, -29.66, -23.38, -17.07, -12.42, -8.97, -3.6, 0.0, 2.4, 2.21, 4.05, 4.52, 5.31, 2.72, 0.0, 0.0, 0.0, 0.0, 0.0, 0.0, 0.0, 8.26, 8.26, 9.12, 9.39, 9.39, 9.39, 9.77, 9.25, 9.52, 9.52, 9.52, 10.47, 10.76, 10.47, 10.47, 10.47, 10.92, 10.11, 9.54, 9.27, 8.99, 8.99, 8.99, 9.44, 9.92, 10.12, 10.12, 11.29, 12.13, 12.42, 13.57, 14.03, 14.3, 14.3, 13.57, 10.12, 6.4, -0.0, -0.0, -0.0, -0.0, -0.0, -0.0, -0.0, -0.0, -0.0, -0.0, -0.0, -0.0, -0.0, -0.0, -0.0, -0.0, -0.0, -0.0, 1.4, 1.4, 1.32, 1.32, 1.4, 1.4, 2.83, 3.52, 4.21, 6.44, 7.87, 8.18, 8.4, 9.55, 9.6, 8.22, 5.7, 5.0, 3.04, 3.25, 3.47, -0.0, -18.33, -20.39, -20.6, -17.87, -14.72, -9.63, 0.0, 0.0, 2.53, 4.67, 4.42, 4.81, 5.15, 4.52, 0.0, -2.13, 0.0, 0.0, 1.55, 1.55, 1.55, 8.76, 8.76, 9.12, 9.12, 9.39, 9.12, 9.77, 9.25, 9.25, 9.52, 9.52, 10.47, 10.47, 10.47, 10.47, 10.61, 10.61, 10.61, 9.82, 9.82, 9.27, 9.97, 9.97, 10.43, 10.12, 10.12, 10.63, 11.72, 11.9, 12.79, 13.15, 13.75, 14.3, 14.3, 13.88, 13.57, 10.12, 4.52, 4.52, 4.52, -0.0, -0.0, -0.0, -0.0, -0.0, -0.0, -0.0, -0.0, -0.0, -0.0, -0.0, -0.0, -0.0, -0.0, 1.93, 1.75, 1.75, 1.4, 1.32, 1.32, 2.69, 2.69, 4.0, 4.66, 6.32, 8.23, 8.8, 7.15, 7.87, 7.27, 5.7, 5.95, 6.45, 6.94, 7.44, 11.53, 12.65, -0.0, -14.88, -13.59, -15.92, -13.79, -9.05, -3.22, 0.0, 2.72, 5.04, 6.87, 4.95, 3.58, 0.0, 0.0, -2.06, 0.0, 0.0, 1.71, 1.71, 1.71, 8.76, 8.76, 9.12, 9.12, 9.12, 9.12, 9.49, 9.77, 9.25, 9.25, 9.67, 10.18, 10.18, 10.18, 10.61, 10.61, 10.61, 10.31, 10.31, 9.82, 10.27, 9.97, 9.67, 10.12, 10.58, 10.58, 11.57, 11.72, 12.27, 12.5, 13.39, 13.88, 14.16, 14.3, 14.3, 13.88, 13.57, 10.12, 7.93, 9.8, 6.2, 4.24, 4.24, 3.14, -0.0, -0.0, -0.0, -0.0, 2.28, 2.28, 2.19, 2.1, -0.0, 2.02, 1.93, 1.93, 1.75, 1.67, 1.58, 1.32, 2.54, 2.69, 3.8, 4.44, 5.82, 7.87, 7.81, 6.64, 8.18, 8.8, 7.27, 7.9, 8.22, 10.41, 10.79, 11.99, 13.57, 15.2, -11.38, -9.92, -9.66, -11.6, -12.99, -7.25, 0.0, 2.5, 4.34, 5.49, 4.66, 2.54, 2.45, 0.0, 0.0, 0.0, 0.0, 1.5, 1.5, 1.5, 9.12, 9.12, 9.12, 8.85, 9.12, 9.12, 9.49, 9.49, 9.49, 9.25, 10.18, 10.18, 10.18, 10.61, 10.61, 10.75, 10.75, 10.31, 10.31, 10.75, 9.97, 9.97, 10.12, 10.12, 10.58, 11.07, 11.57, 12.07, 12.27, 12.79, 13.07, 13.39, 14.19, 14.3, 14.3, 14.3, 13.88, 11.9, 11.53, 11.53, 9.48, 4.24, 4.1, 3.14, 3.14, -0.0, 2.37, 2.37, 2.28, 2.28, 2.19, 2.19, 2.1, 2.1, 2.02, 1.93, 1.84, 3.32, 3.15, 1.58, 2.82, 2.99, 3.8, 4.0, 5.2, 6.17, 7.27, 8.18, 8.18, 9.13, 10.08, 9.6, 10.4, 10.04, 11.2, 11.99, 12.39, 12.79, 0.0, -3.79, -7.4, -10.35, -14.63, -7.74, 0.0, 0.0, 4.12, 4.55, 3.56, 2.06, 4.65, 2.37, 0.0, 0.0, 0.0, 1.33, 1.33, 1.33, 8.85, 8.85, 8.85, 8.85, 8.85, 9.22, 9.22, 9.49, 9.49, 9.49, 9.89, 9.89, 9.89, 10.31, 10.75, 10.75, 10.75, 10.75, 10.75, 10.43, 10.43, 10.12, 10.12, 10.58, 10.58, 11.07, 11.57, 12.07, 12.56, 12.79, 13.28, 13.99, 14.31, 14.6, 14.3, 14.3, 14.03, 13.44, 13.44, 12.72, 11.16, 9.17, 7.19, 5.8, 3.04, 2.45, 2.37, 4.48, 5.2, 2.82, 2.71, 2.71, 2.71, 2.6, 2.49, 2.49, 3.65, 3.49, 3.15, 2.99, 2.99, 2.82, 2.99, 3.8, 4.71, 5.59, 6.95, 7.87, 9.13, 9.64, 9.7, 10.28, 10.0, 8.53, 8.85, 10.37, 10.73, 11.99, 14.3, 0.0, -3.79, -8.51, -9.0, -6.88, 0.0, 0.0, 3.25, 2.49, 3.19, 1.77, 3.82, 4.32, 3.39, 1.76, 1.45, 1.22, 1.22, 1.22, 8.85, 8.85, 8.85, 8.85, 8.85, 9.22, 9.22, 9.22, 9.22, 9.89, 9.89, 9.89, 9.89, 10.31, 10.75, 11.06, 11.17, 11.17, 10.84, 10.43, 10.12, 10.54, 10.12, 10.58, 10.58, 11.07, 11.57, 12.07, 12.56, 12.79, 13.7, 13.99, 13.99, 14.31, 14.16, 14.3, 14.3, 13.59, 13.59, 13.01, 13.01, 10.79, 7.19, 5.6, 3.04, 2.45, 5.4, 5.4, 5.2, 5.2, 2.82, 5.0, 5.0, 4.8, 2.6, 4.6, 4.4, 4.2, 4.0, 3.8, 3.6, 2.82, 2.82, 4.14, 4.46, 5.59, 6.64, 7.27, 7.27, 8.82, 9.55, 9.83, 9.83, 9.3, 8.53, 10.01, 10.37, 11.12, 13.44, 13.19, 0.0, -3.58, -3.07, -2.66, -3.01, 0.0, 3.69, 2.6, 2.6, 1.58, 3.19, 3.68, 5.0, 3.39, 3.25, 2.7, 2.7, 2.7, 8.85, 8.58, 8.58, 8.58, 8.58, 8.94, 8.94, 9.22, 9.22, 9.6, 9.6, 9.6, 10.31, 10.61, 11.06, 10.75, 11.17, 10.84, 10.84, 10.51, 10.92, 10.54, 10.54, 10.99, 10.58, 11.07, 11.57, 11.57, 12.45, 12.65, 13.19, 13.7, 13.99, 14.31, 14.19, 14.3, 14.3, 13.86, 13.86, 13.41, 13.01, 10.37, 9.17, 7.51, 5.6, 2.93, 5.4, 7.24, 5.2, 5.2, 5.2, 5.2, 5.0, 4.8, 4.8, 4.6, 4.4, 4.2, 5.36, 4.0, 3.8, 3.6, 3.4, 3.91, 3.91, 4.58, 6.64, 5.21, 6.14, 8.03, 8.38, 8.58, 8.55, 6.95, 9.3, 10.4, 10.73, 12.3, 13.23, 13.86, 6.4, 0.0, 0.0, -4.12, -7.84, 0.0, 1.93, 2.93, 3.07, 1.58, 1.58, 3.07, 3.68, 5.0, 3.39, 3.11, 3.11, 3.11, 8.58, 8.58, 8.58, 8.58, 8.94, 8.94, 8.94, 8.94, 8.94, 9.6, 9.89, 9.89, 10.61, 10.75, 10.75, 11.17, 10.84, 10.84, 10.51, 10.92, 10.92, 10.92, 10.99, 10.99, 11.44, 11.44, 11.57, 11.93, 12.45, 12.95, 13.19, 13.7, 13.99, 14.4, 14.19, 14.3, 13.86, 13.86, 13.41, 13.41, 12.71, 10.37, 10.01, 8.85, 7.51, 5.4, 6.7, 8.53, 8.53, 5.2, 5.2, 5.2, 6.97, 5.0, 4.8, 4.6, 4.4, 6.64, 6.32, 5.36, 5.1, 4.83, 4.83, 4.56, 4.56, 4.75, 4.83, 5.21, 6.95, 7.33, 6.95, 6.42, 5.52, 4.6, 7.27, 10.0, 11.21, 11.87, 12.96, 12.79, 11.99, -13.86, -14.31, -20.95, -13.46, -5.04, 0.0, 1.83, 3.32, 3.32, 1.64, 1.83, 3.68, 5.2, 4.8, 4.6, 4.6, 4.6, 8.31, 8.31, 8.31, 8.31, 8.94, 8.94, 8.94, 8.94, 9.6, 9.89, 9.89, 9.89, 10.31, 10.75, 10.75, 10.84, 10.84, 10.84, 10.51, 10.92, 10.92, 10.92, 11.34, 10.99, 11.44, 11.8, 12.27, 12.45, 12.45, 12.95, 13.43, 13.7, 14.13, 13.96, 14.22, 14.19, 13.86, 13.86, 13.41, 13.41, 12.04, 10.37, 10.01, 10.01, 7.51, 7.24, 8.53, 8.53, 8.53, 6.7, 6.7, 8.53, 8.22, 7.9, 7.59, 7.27, 6.95, 6.64, 6.32, 6.32, 6.01, 5.69, 4.56, 4.56, 4.56, 4.56, 4.75, 5.84, 8.55, 8.55, 8.03, 6.42, 6.42, 6.42, 7.27, 8.58, 10.79, 11.45, 12.35, 12.52, 12.96, -13.15, -18.33, -22.9, -14.22, -4.75, 0.0, 0.0, 1.5, 3.19, 1.58, 1.58, 3.53, 3.53, 4.8, 4.6, 4.6, 4.6, 8.31, 8.31, 8.31, 8.66, 8.66, 8.94, 8.94, 9.22, 9.6, 9.6, 9.6, 9.89, 10.01, 10.43, 10.43, 10.84, 10.84, 10.84, 11.26, 10.92, 11.26, 11.26, 11.69, 12.13, 11.8, 12.27, 12.65, 13.13, 12.74, 12.95, 13.43, 13.86, 13.7, 13.96, 13.96, 13.75, 13.75, 13.75, 13.41, 13.41, 12.04, 12.04, 11.62, 10.01, 8.85, 9.66, 9.66, 10.8, 8.53, 8.53, 8.53, 8.53, 8.22, 7.9, 7.59, 7.27, 6.95, 6.64, 6.32, 6.32, 6.79, 5.69, 5.37, 5.37, 4.83, 5.69, 6.44, 6.9, 8.55, 8.93, 9.2, 8.38, 8.38, 8.03, 8.18, 8.8, 9.2, 10.79, 11.62, 11.62, 10.41, -6.0, -18.59, -20.09, -13.53, -2.55, 0.0, 0.0, 1.33, 3.07, 3.53, 1.91, 1.91, 3.53, 3.53, 4.4, 4.4, 4.4, 8.31, 8.31, 8.66, 8.66, 8.94, 8.94, 8.94, 8.94, 9.6, 9.6, 9.6, 9.6, 10.01, 10.43, 10.43, 10.84, 10.84, 10.84, 11.26, 11.26, 11.26, 11.69, 11.69, 12.5, 12.5, 12.65, 12.65, 12.74, 12.74, 13.19, 13.43, 13.44, 13.28, 13.7, 13.96, 13.53, 13.75, 13.31, 13.41, 12.79, 12.3, 12.04, 11.62, 11.2, 11.2, 10.8, 10.8, 10.8, 10.04, 8.53, 8.53, 9.66, 9.3, 8.94, 8.58, 8.23, 7.87, 8.4, 8.4, 7.15, 6.79, 6.44, 6.44, 6.44, 6.44, 6.44, 6.79, 7.28, 7.07, 9.6, 9.6, 9.2, 9.2, 9.2, 9.2, 9.45, 9.75, 9.58, 9.97, 9.42, 7.82, -10.12, -17.53, -16.41, -15.87, -6.75, -2.53, 0.0, 0.0, 4.15, 4.32, 4.32, 3.68, 3.68, 3.53, 3.25, 3.25, 3.25, 8.66, 8.66, 8.66, 8.66, 8.66, 8.66, 8.66, 8.94, 9.31, 9.31, 9.31, 9.31, 10.01, 10.43, 10.43, 10.84, 10.84, 11.17, 11.6, 11.6, 11.6, 12.05, 12.05, 12.5, 12.5, 12.65, 12.65, 12.74, 12.74, 13.19, 13.02, 13.02, 13.28, 13.7, 13.15, 13.53, 13.53, 13.31, 13.41, 12.83, 12.79, 12.79, 11.87, 11.62, 11.2, 11.2, 11.21, 10.8, 10.8, 10.04, 10.04, 9.3, 8.94, 8.94, 8.58, 8.23, 7.87, 7.87, 8.4, 8.0, 8.0, 6.79, 6.44, 6.44, 6.44, 6.79, 6.79, 7.28, 7.6, 9.75, 9.2, 9.2, 8.82, 8.8, 8.8, 8.8, 8.43, 8.82, 8.58, 8.22, 9.17, 6.2, -15.65, -16.48, -18.33, -17.31, -7.14, 0.0, 0.0, 3.53, 8.22, 6.97, 3.82, 1.91, 1.84, 1.84, 1.84, 1.84, 9.08, 9.08, 9.08, 8.66, 8.66, 8.66, 8.66, 8.66, 8.66, 9.31, 9.31, 9.6, 10.01, 10.43, 10.75, 11.17, 11.17, 11.17, 11.6, 11.6, 12.05, 12.05, 12.05, 12.5, 11.8, 12.65, 12.27, 12.74, 12.36, 12.56, 13.02, 13.02, 13.28, 12.87, 13.15, 13.15, 13.09, 13.31, 13.41, 12.96, 12.83, 12.79, 12.35, 11.62, 11.62, 12.27, 11.84, 10.8, 10.8, 10.8, 10.8, 10.4, 10.0, 10.0, 8.58, 8.23, 8.43, 8.43, 8.05, 8.0, 8.0, 7.6, 6.9, 7.28, 6.79, 6.79, 7.15, 7.67, 8.0, 8.82, 8.03, 8.03, 8.8, 8.4, 8.4, 7.33, 6.64, 6.64, 6.17, 8.22, 9.62, 8.38, -6.6, -16.54, -18.5, -21.64, -12.61, -5.8, 0.0, 0.0, 9.17, 9.17, 4.81, 2.54, 0.0, 2.45, 2.45, 2.45, 8.78, 8.78, 8.78, 9.08, 8.66, 8.66, 8.66, 8.66, 8.66, 9.31, 9.31, 9.6, 10.43, 10.75, 10.75, 11.17, 11.17, 11.17, 11.6, 11.6, 12.05, 11.69, 12.05, 12.5, 11.8, 12.27, 12.27, 12.36, 12.36, 12.56, 12.56, 13.02, 12.79, 12.87, 12.66, 12.72, 13.09, 13.31, 12.96, 12.96, 12.96, 12.96, 12.79, 12.27, 12.27, 12.27, 11.84, 11.71, 10.8, 10.8, 10.79, 10.0, 10.96, 9.6, 9.6, 8.23, 8.23, 8.43, 8.05, 7.67, 7.6, 7.89, 7.89, 7.89, 7.28, 7.89, 8.3, 8.3, 8.0, 8.0, 8.15, 10.27, 9.2, 8.4, 8.05, 7.33, 7.33, 7.68, 8.82, 9.97, 11.2, 9.48, -6.6, -16.54, -20.39, -21.64, -15.8, -8.8, -5.65, 0.0, 0.0, 10.43, 9.48, 4.24, 0.0, 0.0, 0.0, 0.0, 8.78, 8.78, 8.78, 8.78, 8.78, 9.08, 8.66, 8.66, 8.66, 9.31, 9.73, 10.04, 10.04, 10.75, 10.75, 11.17, 11.17, 11.17, 11.6, 11.6, 11.69, 11.69, 12.05, 12.5, 11.8, 12.27, 11.9, 12.36, 12.07, 12.56, 12.56, 12.79, 12.39, 12.87, 12.87, 12.72, 13.09, 12.86, 12.96, 12.96, 12.96, 12.96, 12.96, 12.79, 12.35, 12.35, 11.84, 11.84, 11.71, 11.84, 11.4, 10.96, 10.96, 10.52, 9.2, 9.2, 9.2, 9.13, 8.4, 8.0, 7.67, 7.89, 7.89, 7.89, 8.06, 7.89, 8.3, 8.3, 8.48, 8.48, 9.03, 10.75, 9.2, 9.6, 8.05, 8.43, 8.43, 8.18, 9.2, 9.6, 10.8, 9.17, -4.52, -15.65, -19.93, -23.77, -15.49, -10.58, -6.97, -4.55, 0.0, 0.0, 10.43, 9.17, 9.17, 9.17, 9.17, 9.17, 8.78, 8.78, 8.78, 8.78, 8.78, 8.78, 8.78, 8.66, 8.66, 9.31, 9.73, 10.04, 10.04, 10.43, 10.43, 10.84, 10.84, 10.84, 11.26, 11.26, 11.69, 11.69, 11.69, 12.13, 12.27, 11.9, 11.9, 12.36, 12.07, 12.56, 12.56, 12.62, 12.39, 12.87, 12.85, 12.72, 13.09, 12.88, 12.96, 12.96, 12.96, 12.96, 12.96, 12.52, 12.52, 12.52, 12.07, 11.84, 11.71, 11.4, 11.46, 10.96, 10.96, 9.96, 9.96, 9.2, 9.97, 9.64, 8.72, 8.91, 8.48, 7.89, 7.89, 8.06, 8.06, 8.06, 8.82, 8.77, 8.82, 8.82, 9.29, 9.11, 9.11, 11.4, 9.26, 9.64, 9.33, 8.18, 8.55, 9.6, 10.4, 9.17, -4.38, -14.75, -17.43, -21.47, -17.07, -10.81, -10.58, -7.47, -4.66, 0.0, 0.0, 0.0, 0.0, 5.8, 5.8, 5.8, 8.78, 8.78, 8.78, 8.78, 8.78, 8.78, 8.78, 8.66, 8.66, 9.31, 9.73, 10.04, 10.04, 10.43, 10.43, 10.84, 10.84, 10.84, 11.26, 11.26, 11.69, 11.69, 11.69, 12.13, 12.27, 11.9, 11.9, 12.36, 12.07, 12.56, 12.56, 12.62, 12.39, 12.87, 12.85, 12.72, 13.09, 12.88, 12.96, 12.96, 12.96, 12.96, 12.96, 12.52, 12.52, 12.52, 12.07, 11.84, 11.71, 11.4, 11.46, 10.96, 10.96, 9.96, 9.96, 9.2, 9.97, 9.64, 8.72, 8.91, 8.48, 7.89, 7.89, 8.06, 8.06, 8.06, 8.82, 8.77, 8.82, 8.82, 9.29, 9.11, 9.11, 11.4, 9.26, 9.64, 8.8, 8.18, 8.55, 9.6, 10.4, 8.85, -0.0, -14.03, -15.78, -17.25, -16.75, -10.81, -10.81, -6.64, -6.36, -3.77, 0.0, 0.0, 0.0, 0.0, 0.0, 0.0]}, {"header": {"dx": 0.06612293990616946, "dy": 0.0552356325346848, "nx": 98, "ny": 59, "la1": 35.046912555036876, "la2": 31.78801023549047, "lo1": -121.43107172385933, "lo2": -114.95102361305473, "refTime": "2026041718", "parameterCategory": 1, "parameterNumber": 3}, "data": [-17.02, -17.02, -17.02, -16.6, -14.95, -14.18, -12.57, -11.06, -8.83, -7.82, -6.4, -5.45, -2.28, 9.17, 12.07, 11.62, 11.4, 10.96, 11.03, 10.41, 10.79, 9.17, 8.22, -0.0, -0.0, -0.0, -4.48, -5.6, -5.4, -7.54, -7.82, -9.17, -11.2, -10.84, -10.28, -9.83, -9.26, -8.72, -8.05, -8.23, -9.83, 2.19, 2.28, -0.0, -0.0, -0.0, -0.0, -2.76, -4.17, -3.36, -5.63, -5.81, -6.8, -7.0, -7.0, -9.77, -8.05, -9.39, -9.39, -8.68, -8.68, -13.02, -13.59, -14.11, -13.59, -14.38, -15.07, -15.07, -15.27, -15.27, -15.27, -15.27, -15.27, -15.55, -15.55, -15.55, -14.75, -14.3, -14.75, -14.69, -14.11, -12.6, -11.6, -10.41, -8.53, -6.76, -4.75, -1.58, -3.07, -5.0, -10.37, -13.88, -14.75, -15.2, -14.6, -13.88, -12.85, -12.58, -17.97, -17.97, -17.02, -16.6, -16.19, -14.57, -12.57, -11.06, -9.73, -8.57, -6.88, -6.6, -2.63, 8.85, 12.96, 11.45, 9.6, 11.45, 11.45, 9.97, 9.48, 9.17, 7.19, 9.17, -0.0, -2.71, -5.2, -6.21, -7.54, -6.94, -8.94, -8.66, -10.73, -9.13, -7.74, -8.0, -6.9, -8.0, -8.91, -0.0, 3.96, 4.24, 4.1, 1.68, -0.0, -0.0, -0.0, -2.5, -3.36, -4.05, -5.81, -5.99, -5.99, -6.8, -6.8, -8.05, -8.05, -6.8, -7.0, -4.95, -4.95, -10.75, -13.59, -14.11, -13.59, -14.38, -14.79, -15.07, -15.07, -14.39, -15.69, -15.61, -15.61, -15.08, -15.08, -14.75, -14.75, -14.3, -14.75, -14.69, -14.11, -12.6, -11.6, -10.41, -8.53, -6.76, -4.75, -1.58, -3.07, -5.0, -10.37, -13.88, -14.75, -15.2, -14.6, -13.88, -12.85, -12.58, -17.97, -17.97, -17.39, -16.96, -16.96, -15.59, -13.76, -11.38, -9.73, -8.57, -7.1, -3.56, 0.0, 9.17, 8.22, 9.67, 9.3, 10.79, 11.21, 11.6, 9.08, 8.85, 8.85, 9.48, 9.8, -4.8, -6.44, -7.59, -8.73, -8.22, -10.43, -11.87, -12.79, -10.38, -6.52, -1.54, -0.0, 0.99, 3.11, 4.32, 5.18, 3.88, 3.51, 2.27, -0.0, -0.0, -2.16, -1.66, -4.05, -4.18, -4.81, -4.81, -4.81, -7.82, -7.59, -7.82, -7.82, -5.81, -7.0, -7.0, -8.68, -12.65, -13.59, -14.11, -13.59, -14.38, -13.58, -13.58, -13.58, -13.97, -15.07, -15.61, -15.53, -15.08, -14.75, -14.75, -15.2, -15.2, -14.3, -14.7, -14.11, -13.01, -11.8, -10.35, -9.67, -8.22, -5.54, -3.07, -2.71, -4.93, -8.05, -11.7, -11.38, -15.2, -13.99, -12.98, -12.3, -12.08, -17.97, -18.08, -17.39, -16.96, -16.96, -15.59, -14.13, -12.71, -11.06, -9.44, -7.93, -5.46, 0.0, 7.51, 8.53, 8.22, 9.3, 10.8, 10.79, 10.35, 8.73, 7.9, 7.9, 6.98, 7.54, 0.0, -9.75, -9.13, -9.64, -9.3, -8.53, -9.8, -15.65, -15.65, -0.0, 3.98, 3.82, 4.8, 6.08, 5.15, 4.35, 3.77, 1.96, -0.0, -0.0, -1.53, -1.72, -3.47, -4.05, -4.05, -5.81, -6.8, -6.6, -9.22, -9.22, -7.59, -7.82, -8.05, -5.81, -7.0, -10.75, -13.59, -13.7, -13.19, -12.27, -13.2, -13.58, -12.73, -14.19, -15.16, -15.61, -15.04, -15.49, -14.75, -14.3, -13.86, -14.75, -15.2, -15.2, -13.81, -13.28, -13.01, -12.3, -10.4, -10.21, -9.46, -9.27, -7.44, -5.54, -7.76, -9.2, -5.37, 0.0, -13.19, -11.5, -11.64, -11.85, -11.62, -18.08, -18.08, -17.39, -16.96, -16.96, -15.99, -14.51, -14.13, -12.22, -9.49, -7.59, -4.38, 0.0, 5.8, 7.24, 8.53, 9.97, 10.35, 10.79, 11.21, 10.79, 11.2, 9.67, 8.22, 8.38, 8.53, 0.0, 0.0, 0.0, 10.28, 10.73, 11.18, 11.62, 12.52, 11.9, 7.93, 5.64, 4.38, 3.49, 1.73, -0.0, -0.0, -0.0, -0.0, -1.53, -1.53, -3.47, -3.47, -5.81, -5.99, -8.18, -7.93, -8.94, -10.43, -9.22, -9.22, -7.82, -7.0, -7.0, -7.82, -10.43, -11.44, -13.28, -13.19, -12.27, -14.36, -13.82, -14.03, -15.54, -17.99, -18.42, -17.35, -18.33, -17.43, -15.53, -12.88, -13.77, -14.3, -13.86, -13.37, -12.83, -12.63, -11.71, -10.78, -10.7, -11.03, -10.8, -9.46, -12.02, -12.64, -10.89, -4.95, 0.0, -6.0, -11.12, -11.64, -11.85, -11.62, -17.39, -17.39, -17.39, -17.19, -16.96, -15.99, -15.59, -15.19, -13.8, -12.52, -10.75, -2.81, 0.0, 2.54, 7.51, 10.35, 10.8, 11.21, 11.21, 11.21, 10.4, 10.35, 11.99, 11.99, 11.2, 11.71, 11.45, 12.07, 12.96, 12.07, 9.83, 10.08, 9.55, 7.59, 5.4, 3.81, 1.66, -0.0, -0.0, -1.58, -2.72, -3.93, -2.72, -2.81, -3.1, -3.2, -5.18, -5.02, -7.1, -7.1, -8.87, -9.8, -9.8, -8.94, -9.22, -7.59, -6.6, -6.6, -8.43, -9.22, -9.8, -10.73, -12.65, -12.65, -13.1, -13.82, -14.19, -14.03, -15.19, -18.68, -21.13, -19.73, -18.22, -18.78, -18.22, -16.15, -13.09, -12.9, -12.96, -12.92, -11.91, -11.33, -11.33, -11.28, -11.21, -11.21, -13.27, -15.91, -17.26, -15.99, -12.87, -7.0, 0.0, -9.17, -11.12, -11.64, -11.85, -11.62, -17.62, -17.62, -17.62, -17.19, -17.19, -15.99, -15.59, -16.19, -15.36, -13.02, -10.75, 0.0, 2.81, 4.81, 7.44, 10.79, 11.45, 11.87, 12.35, 11.21, 10.8, 12.45, 11.88, 11.6, 11.2, 11.28, 11.62, 12.07, 12.14, 10.73, 11.18, 9.64, 7.87, 4.83, 3.07, 1.83, -0.0, -2.63, -2.28, -1.69, -2.45, -4.1, -5.63, -5.99, -6.16, -6.17, -6.54, -7.54, -8.87, -8.31, -10.12, -9.8, -8.94, -7.59, -5.31, -4.38, -6.4, -6.4, -7.1, -7.69, -9.48, -11.5, -13.03, -13.39, -13.46, -14.03, -15.19, -14.71, -14.99, -17.25, -19.95, -19.4, -16.94, -16.54, -16.92, -16.92, -14.9, -13.34, -13.36, -13.25, -11.76, -12.39, -13.5, -14.14, -15.02, -16.55, -18.41, -19.91, -19.22, -15.99, -7.4, 0.0, 0.0, -11.16, -11.99, -11.26, -10.94, -12.04, -17.19, -17.19, -17.19, -17.19, -17.19, -16.96, -16.54, -16.66, -16.05, -15.65, -10.75, 0.0, 6.4, 10.73, 13.44, 12.07, 12.52, 13.28, 12.79, 12.27, 12.14, 12.14, 12.71, 12.87, 12.39, 11.71, 12.07, 12.14, 11.62, 11.18, 11.18, 11.62, 10.6, 5.95, 3.07, 1.58, -0.0, -1.58, -2.45, -0.0, -0.0, -2.37, -4.24, -7.93, -8.18, -9.35, -8.68, -9.66, -9.44, -8.58, -6.94, -6.0, -4.38, -4.38, -2.28, -2.28, -2.28, -3.81, -5.28, -7.19, -9.77, -11.5, -11.87, -13.02, -12.36, -13.82, -15.19, -14.84, -14.4, -15.34, -17.53, -18.25, -16.04, -15.65, -15.2, -14.75, -14.3, -13.36, -12.79, -13.94, -15.04, -13.89, -14.1, -15.25, -17.05, -19.17, -19.7, -18.66, 18.33, 13.76, 11.38, 5.09, 0.0, -13.44, -11.99, -11.2, -10.55, -12.04, -16.74, -16.44, -16.44, -17.19, -17.19, -16.96, -17.1, -16.99, -16.54, -16.09, -13.59, -6.2, 13.99, 13.23, 13.41, 12.96, 13.28, 13.41, 12.96, 12.52, 12.52, 12.52, 12.96, 13.86, 13.23, 12.52, 9.83, 10.73, 11.71, 9.6, 10.79, 12.07, 12.14, 6.7, 1.58, 1.45, 2.1, -0.0, -0.0, -0.0, -0.0, -2.45, -4.65, -6.9, -7.93, -7.69, -9.35, -10.87, -9.66, -7.54, -7.59, -5.11, -3.68, -1.96, -1.96, -1.96, -1.96, -3.56, -5.6, -7.82, -9.77, -11.87, -11.87, -12.22, -13.39, -14.75, -15.14, -15.47, -14.18, -14.18, -15.97, -16.44, -16.54, -15.57, -14.75, -14.3, -13.86, -12.93, -13.7, -15.05, -16.35, -13.77, -13.35, -13.62, -15.27, -15.96, -15.59, 0.0, 15.78, 13.59, 9.17, 3.14, -7.19, -13.41, -12.89, -11.2, -11.21, -11.34, -16.32, -16.74, -16.44, -17.19, -17.19, -17.64, -17.43, -16.99, -16.09, -16.09, -14.84, -10.75, 9.8, 12.58, 14.3, 12.72, 13.15, 12.87, 13.44, 12.96, 12.52, 12.52, 12.96, 13.41, 13.41, 12.07, 9.83, 11.4, 12.45, 9.42, 10.73, 13.57, 12.87, 6.7, -0.0, -0.0, 1.76, 1.11, -0.0, -0.0, -0.0, -3.04, -4.75, -5.77, -5.2, -6.3, -6.51, -7.36, -8.05, -7.6, -6.6, -5.18, -3.47, -3.36, -3.36, -1.77, -1.96, -3.56, -5.6, -7.82, -11.52, -12.92, -13.95, -13.39, -13.39, -14.51, -14.88, -13.8, -13.59, -13.88, -14.47, -15.43, -15.87, -15.97, -15.65, -13.86, -13.36, -12.35, -12.83, -14.72, -16.82, -16.17, -14.79, -13.51, -12.17, -11.16, -9.8, 0.0, 10.12, 9.17, 6.67, 0.0, -7.51, -12.71, -12.46, -11.2, -12.04, -11.76, -15.93, -16.32, -16.44, -17.19, -16.96, -17.64, -17.43, -16.54, -16.54, -16.09, -15.18, -10.75, 0.0, 12.79, 15.18, 11.44, 12.27, 10.12, 14.75, 14.75, 15.65, 15.34, 14.75, 12.52, 12.58, 10.18, 9.75, 9.54, 10.08, 10.73, 8.53, 7.4, 7.87, 5.21, 2.13, -0.0, -0.0, -0.0, -1.28, -2.72, -3.14, -4.39, -4.58, -6.21, -5.2, -5.64, -5.4, -5.6, -6.67, -6.9, -6.6, -7.82, -7.82, -6.54, -5.98, -3.24, -4.01, -3.81, -5.75, -9.48, -14.51, -14.88, -13.76, -13.97, -12.36, -11.17, -12.01, -12.64, -12.65, -11.6, -13.15, -13.99, -16.09, -15.87, -15.2, -13.34, -11.21, -11.56, -14.07, -15.15, -16.06, -17.28, -15.47, -14.67, -12.57, -10.43, -8.06, -2.15, 0.0, 2.63, 2.06, 0.0, -4.65, -11.2, -13.23, -13.39, -12.87, -12.6, -16.19, -16.54, -16.74, -17.19, -16.96, -17.64, -17.43, -16.54, -16.54, -16.54, -15.61, -14.84, -11.06, 15.65, 13.59, 6.6, -0.0, 0.0, 0.0, 0.0, 14.3, 14.75, 14.3, 15.65, 12.72, 11.87, 12.07, 8.49, 10.41, 10.73, 8.73, 6.59, 6.59, 4.92, 2.71, 0.97, -0.0, -1.16, -2.28, -3.82, -5.6, -5.4, -5.77, -5.98, -5.52, -5.1, -5.4, -6.94, -7.19, -8.05, -8.2, -9.49, -10.77, -10.35, -8.6, -5.06, -4.36, -5.16, -6.21, -10.82, -14.88, -15.91, -15.14, -13.97, -11.38, -11.17, -14.31, -14.24, -16.09, -14.13, -13.19, -13.86, -14.75, -15.2, -12.96, -11.55, -11.13, -13.99, -14.99, -15.39, -16.04, -16.05, -16.61, -15.99, -15.18, -12.77, -8.97, -4.81, -1.83, 0.0, 0.0, 0.0, 0.0, -2.28, -12.52, -11.92, -13.99, -13.8, -16.38, -15.93, -16.32, -16.44, -17.19, -17.64, -17.43, -16.99, -16.54, -16.09, -16.09, -15.18, -15.65, 0.0, -0.0, -0.0, -0.0, -14.75, -13.86, 0.0, 0.0, 0.0, 15.2, 14.75, 14.3, 13.86, 9.48, 4.1, 7.24, 7.68, 11.18, 5.92, 3.82, 3.82, 2.0, 1.07, -0.0, -1.23, -2.42, -3.92, -4.58, -4.58, -5.0, -4.4, -0.0, -0.0, -0.0, -3.82, -5.8, -6.9, -6.94, -6.51, -6.4, -5.99, -3.33, -3.59, -6.36, -8.47, -11.38, -10.8, -13.97, -14.79, -15.59, -14.39, -14.66, -14.22, -15.8, -17.7, -17.39, -21.47, -19.99, -21.01, -13.88, -10.79, -9.54, -11.35, -14.13, -15.27, -15.41, -15.84, -15.83, -16.31, -15.74, -16.12, -14.91, -14.03, -13.07, -9.2, -6.54, -3.47, -3.36, -1.44, 0.0, 0.0, -6.94, -12.72, -12.3, -13.37, -15.87, -16.19, -16.96, -16.74, -17.19, -17.64, -17.43, -16.99, -16.99, -16.54, -16.09, -15.65, -15.65, -16.09, 0.0, -0.0, -17.43, -16.99, -16.09, -15.65, -15.2, 0.0, 0.0, 0.0, 0.0, 0.0, 15.2, 13.99, 13.59, 12.83, 10.68, 10.32, 4.15, 2.49, 2.49, 1.33, -0.0, -0.0, -0.0, -0.0, -0.0, -0.0, -0.0, 7.27, 9.83, 10.28, 9.11, 10.0, 11.62, 12.52, -0.0, 8.53, 10.8, 12.07, 12.52, 12.52, -0.0, -13.59, -18.4, -13.32, -13.15, -14.38, -15.2, -15.61, -14.79, -13.06, -11.58, -13.28, -15.17, -20.39, -22.48, -22.35, -18.14, -9.97, -11.35, -14.47, -16.22, -17.1, -16.12, -16.12, -16.12, -15.84, -15.25, -14.81, -14.6, -14.52, -14.11, -12.07, -10.46, -7.4, -4.52, -3.68, -3.68, -1.55, -1.9, -13.01, -12.66, -12.71, -16.09, -15.59, -16.34, -16.74, -16.44, -17.62, -17.64, -17.43, -16.99, -16.54, -16.09, -15.65, -16.09, -16.09, -16.54, -17.43, -17.43, -17.43, -17.43, -16.99, -16.54, -11.38, -11.06, -0.0, -0.0, 11.06, 14.42, 13.99, 13.57, 13.37, 12.14, 10.25, 10.96, 5.7, 5.7, 3.25, 3.39, 2.39, 3.53, 2.39, 2.49, 4.8, 6.95, 8.8, 9.83, 9.83, 9.33, 9.97, 10.41, 10.0, 10.4, 10.84, 10.73, 9.39, 9.54, 8.58, 10.4, -7.13, -15.72, -16.76, -12.91, -12.46, -13.15, -13.28, -13.99, -13.59, -11.7, -12.01, -12.87, -17.99, -19.77, -21.46, -20.46, -12.31, -13.19, -16.47, -17.36, -17.53, -16.58, -16.12, -16.32, -15.52, -14.99, -12.6, -11.97, -13.84, -13.59, -14.07, -12.22, -9.61, -9.0, -6.51, -5.4, -4.39, -3.68, -12.96, -12.9, -12.9, -15.59, -15.87, -16.6, -15.99, -16.74, -17.62, -17.64, -17.64, -16.76, -16.54, -16.09, -16.09, -16.09, -16.54, -16.99, -16.99, -17.43, -17.43, -17.88, -17.43, -15.59, -12.01, -7.4, -0.0, 4.95, 11.06, 11.68, 12.65, 13.34, 13.19, 12.99, 12.1, 10.08, 10.41, 9.97, 8.0, 3.25, 2.49, 3.39, 3.25, 4.2, 5.21, 4.6, 8.8, 8.8, 9.39, 9.83, 10.28, 10.28, 10.28, 10.84, 11.28, 11.28, 10.41, 8.91, 8.18, 8.55, 11.62, -13.19, -14.84, -11.88, -10.79, -5.2, 10.8, 12.07, 12.3, 9.17, 8.43, -14.39, -19.08, -20.82, -18.78, -18.66, -18.72, -15.2, -18.33, -19.22, -18.78, -18.22, -17.78, -17.16, -16.39, -15.52, -13.7, -11.21, -9.77, -12.25, -12.14, -12.14, -11.28, -11.06, -8.44, -7.54, -6.0, -7.19, -11.71, -12.52, -12.52, -15.83, -15.59, -15.99, -16.34, -16.74, -16.85, -17.62, -17.19, -17.2, -16.76, -16.09, -16.09, -16.54, -16.54, -16.99, -16.99, -16.99, -17.43, -17.43, -17.43, -15.59, -12.01, -5.37, -0.0, 3.16, 10.05, 11.38, 11.38, 12.7, 13.01, 12.65, 12.27, 11.6, 11.09, 8.48, 9.03, 7.87, 7.59, 5.7, 6.95, 6.95, 7.44, 7.27, 6.32, 8.8, 9.83, 10.28, 10.28, 10.28, 10.28, 10.28, 10.18, 10.6, 8.93, 7.59, 7.27, 5.7, 7.59, -10.8, -11.6, -12.04, -5.0, 10.18, 10.73, 10.73, 10.28, 9.67, 8.22, 0.0, 0.0, 9.8, 12.96, -12.64, -20.94, -17.7, -18.56, -18.96, -19.67, -19.67, -18.66, -16.96, -15.93, -14.85, -13.84, -12.79, -10.16, -9.82, -12.46, -12.56, -11.28, -11.2, -10.18, -9.5, -9.17, -9.48, -11.3, -12.52, -12.52, -15.35, -15.59, -16.28, -15.99, -16.34, -17.16, -16.85, -17.19, -16.76, -16.82, -16.37, -15.93, -16.31, -16.54, -16.99, -16.54, -17.43, -17.43, -16.99, -16.54, -16.54, -16.99, -11.7, -3.16, 2.65, 7.2, 9.17, 9.35, 10.6, 11.38, 11.06, 11.3, 10.63, 8.64, 9.05, 8.55, 8.34, 8.23, 6.95, 8.18, 8.8, 9.54, 9.33, 9.75, 10.28, 10.28, 10.73, 10.28, 10.28, 10.28, 10.28, 10.28, 9.2, 7.27, 7.27, 3.25, 3.25, 3.39, -11.18, -10.0, -10.8, -0.0, 9.6, 10.73, 10.73, 9.83, 7.81, 5.7, 6.7, 13.99, 19.52, 18.91, 19.4, -19.19, -16.76, -16.0, -17.09, -18.52, -19.67, -18.68, -16.7, -16.8, -16.51, -12.52, -11.99, -10.41, -9.84, -11.6, -12.33, -13.39, -13.39, -11.6, -9.86, -10.24, -11.64, -12.14, -12.47, -12.47, -15.59, -15.35, -15.31, -15.59, -16.34, -15.99, -17.16, -16.44, -17.19, -16.76, -16.37, -16.37, -16.37, -16.82, -16.54, -18.78, -16.54, -16.54, -16.09, -16.09, -16.54, 0.0, 0.0, 4.12, 2.21, 5.98, 7.19, 8.83, 9.09, 8.51, 8.78, 8.94, 8.38, 8.07, 7.48, 7.18, 7.27, 8.07, 8.59, 8.58, 9.13, 10.08, 11.18, 11.18, 11.28, 10.73, 10.73, 10.28, 10.28, 10.28, 10.28, 10.28, 9.2, 9.2, 4.6, 4.6, 0.0, 0.0, -12.07, -9.3, -5.2, 8.22, 11.18, 9.83, 9.83, 9.11, 8.91, 7.27, 6.44, 10.12, 14.88, 19.08, 22.93, -0.0, -17.52, -15.79, -16.64, -15.98, -16.94, -17.38, -16.24, -16.42, -15.9, -15.47, -15.27, -14.65, -13.76, -13.65, -13.15, -12.56, -13.88, -13.09, -12.72, -11.44, -12.39, -13.57, -13.59, -13.59, -15.59, -15.35, -15.59, -15.31, -15.99, -16.34, -15.99, -16.74, -16.74, -16.91, -16.82, -16.37, -16.37, -16.33, -16.66, -16.54, -16.54, -15.65, -16.99, -0.0, -0.0, 15.19, 16.12, 10.89, 6.34, 6.16, 5.81, 6.51, 6.73, 5.8, 6.44, 6.44, 6.21, 6.21, 5.98, 5.52, 5.95, 6.44, 6.24, 7.27, 9.2, 10.58, 11.18, 10.75, 9.09, 9.67, 10.28, 9.2, 10.28, 9.83, 9.83, 10.28, 10.73, 10.0, 8.18, 5.46, 0.0, -3.39, -10.73, -9.67, -0.0, 7.59, 10.73, 10.73, 10.28, 9.97, 9.2, 7.9, 7.24, 6.0, 6.52, 6.91, 10.8, 11.8, -20.6, -16.41, -17.49, -19.63, -17.43, -16.84, -15.47, -16.12, -16.55, -16.35, -16.05, -14.84, -12.79, -10.99, -12.03, -11.2, -12.56, -13.53, -14.84, -13.15, -12.87, -14.42, -14.47, -14.47, -15.14, -14.85, -15.06, -15.31, -14.95, -15.24, -15.63, -15.99, -16.74, -16.74, -16.48, -16.05, -16.05, -16.48, -16.12, -16.48, -16.54, -15.18, 14.75, 7.6, 5.51, 8.05, 10.05, 7.98, 5.65, 5.09, 4.66, 4.38, 5.27, 4.48, 4.32, 5.2, 5.2, 5.2, 5.64, 5.43, 5.0, 4.8, 5.32, 6.98, 7.9, 10.38, 11.02, 12.07, 10.88, 10.8, 9.83, 9.75, 9.75, 10.28, 9.83, 10.28, 10.73, 10.6, 8.93, 8.55, 0.0, -5.0, -11.62, -10.0, -0.0, 0.0, 10.73, 11.18, 10.28, 10.41, 9.6, 8.53, 7.78, 4.38, 1.94, -2.27, -7.35, -7.92, -19.67, -17.26, -18.05, -21.86, -21.85, -18.78, -17.38, -16.04, -14.75, -13.37, -13.63, -12.94, -12.45, -11.72, -11.72, -10.24, -10.87, -13.01, -14.66, -13.15, -12.87, -13.7, -14.51, -14.51, -14.75, -15.14, -15.35, -15.06, -15.31, -14.95, -15.24, -15.63, -16.34, -16.32, -16.48, -16.05, -16.05, -16.48, -16.33, -15.77, -16.66, -15.27, 16.09, 9.17, -0.0, -0.0, 2.43, 2.15, 2.0, 3.59, 3.49, 4.81, 3.98, 4.81, 4.48, 4.32, 4.32, 4.72, 4.72, 5.0, 5.2, 5.77, 5.54, 6.2, 7.9, 8.73, 10.6, 11.95, 11.11, 10.41, 10.73, 8.18, 9.97, 10.28, 10.28, 10.73, 10.73, 10.6, 8.93, 9.3, 0.0, -12.52, -11.62, -10.73, 0.0, 0.0, 11.18, 11.18, 11.18, 10.6, 9.67, 8.53, 7.78, 6.6, 3.79, -14.22, -22.99, -22.41, -11.18, -12.47, -16.58, -18.21, -21.46, -21.01, -18.33, -16.49, -16.04, -15.2, -14.25, -13.19, -12.85, -13.28, -13.43, -10.55, -10.24, -12.56, -14.3, -14.23, -13.7, -13.28, -14.13, -14.13, -14.57, -14.57, -14.75, -15.06, -15.06, -15.31, -14.95, -15.24, -15.24, -15.93, -16.12, -16.15, -16.15, -16.15, -16.48, -16.12, -16.66, -15.69, 0.0, -0.0, -0.0, -0.0, -0.0, 2.02, 1.83, 1.73, 3.49, 3.49, 4.37, 4.11, 5.45, 5.27, 4.9, 4.72, 5.2, 5.2, 5.77, 5.77, 6.45, 6.45, 8.22, 9.08, 10.4, 11.18, 11.62, 11.18, 10.41, 8.4, 9.21, 10.28, 10.28, 10.73, 10.73, 11.18, 10.41, 9.6, 7.9, -12.96, -12.96, -9.39, -6.64, 0.0, 11.62, 11.62, 11.18, 9.3, 9.67, 7.9, 5.2, 4.65, 7.69, 0.0, -18.65, -13.67, -9.39, -9.79, -12.96, -15.2, -16.99, -18.96, -19.22, -16.76, -15.46, -15.6, -14.75, -13.67, -13.44, -13.57, -14.28, -17.13, -13.29, -12.79, -14.19, -14.3, -14.03, -13.28, -13.28, -13.28, -14.57, -14.57, -14.29, -13.97, -15.06, -14.71, -15.31, -14.95, -15.59, -15.24, -16.12, -15.69, -15.69, -15.69, -16.58, -16.48, -16.76, -16.05, -16.54, -12.01, -4.12, -0.0, -0.0, -0.0, 1.77, 1.83, 3.3, 3.39, 4.95, 4.81, 5.81, 5.63, 5.27, 5.6, 5.2, 5.54, 5.54, 6.2, 6.45, 7.26, 7.26, 7.26, 9.08, 10.4, 10.68, 10.84, 12.27, 10.96, 10.52, 11.18, 11.62, 11.18, 10.73, 10.73, 10.08, 9.97, 9.55, 8.53, -12.96, -11.62, -8.94, 0.0, 11.18, 11.62, 10.84, 10.8, 10.8, 8.85, 5.0, 2.19, 1.84, -0.0, -15.07, -25.89, -16.37, -12.89, -11.16, 0.0, 10.43, 0.0, -15.87, -17.36, -17.05, -16.39, -16.99, -16.49, -16.35, -16.91, -18.11, -17.79, -16.12, -12.56, -13.72, -13.86, -14.03, -13.28, -13.02, -13.02, -14.57, -14.57, -14.57, -14.29, -14.47, -14.13, -14.71, -14.71, -14.95, -15.59, -15.77, -15.84, -15.84, -15.84, -16.15, -16.58, -16.37, -16.31, -16.54, -13.76, -4.12, -0.0, -0.0, -0.0, 1.89, 1.83, 3.2, 4.66, 4.81, 4.66, 5.99, 5.81, 5.45, 6.87, 6.63, 6.76, 6.5, 6.2, 6.98, 7.26, 8.22, 6.97, 6.98, 7.9, 9.3, 9.32, 10.68, 10.32, 9.46, 9.76, 10.73, 12.52, 10.73, 10.73, 10.08, 10.28, 10.28, 9.7, 10.4, 0.0, 0.0, 9.39, 9.83, 10.73, 11.28, 10.8, 9.66, 7.24, 5.4, 0.0, 2.63, -0.0, -13.68, -25.95, -27.55, -18.79, -12.64, -5.81, 0.0, 4.24, -9.8, -16.09, -18.52, -19.88, -19.16, -18.33, -18.71, -18.7, -17.35, -15.65, -16.99, -14.31, -13.88, -14.64, -13.15, -12.87, -13.02, -13.02, -13.76, -13.76, -13.76, -14.29, -14.29, -14.47, -14.13, -14.33, -14.71, -15.31, -15.19, -15.77, -15.84, -15.84, -16.22, -16.15, -16.44, -16.37, -16.54, -14.79, -7.6, -0.0, -0.0, -0.0, 1.94, 1.89, 3.2, 4.52, 4.52, 4.52, 5.81, 5.63, 7.11, 7.11, 6.63, 7.02, 7.44, 7.15, 7.9, 8.73, 8.94, 9.3, 6.71, 6.98, 6.87, 8.24, 10.09, 9.45, 9.46, 9.54, 10.91, 11.11, 12.52, 12.07, 11.02, 10.73, 10.28, 9.83, 10.28, 11.03, 10.8, 10.8, 9.39, 9.83, 10.84, 11.21, 10.01, 8.85, 2.54, 0.0, 0.0, -14.3, -10.87, -22.6, -27.27, -25.02, -17.29, -10.73, -5.8, 0.0, 0.0, -13.86, -16.66, -18.41, -16.9, -17.43, -16.54, -15.65, -14.75, -15.2, -16.99, -16.46, -14.84, -15.27, -13.59, -13.7, -13.02, -13.02, -14.03, -14.03, -13.76, -14.13, -14.29, -14.47, -14.47, -14.13, -14.33, -14.33, -14.91, -15.46, -15.54, -15.96, -15.96, -16.22, -16.22, -16.41, -16.54, -15.36, -7.4, -3.24, -0.0, -0.0, -0.0, 1.94, 3.3, 4.66, 4.52, 4.38, 5.45, 5.45, 6.87, 6.87, 6.63, 8.15, 8.15, 8.53, 9.27, 10.09, 10.27, 11.51, 11.4, 4.8, 5.1, 7.9, 9.7, 9.45, 9.54, 9.54, 10.47, 10.91, 10.04, 10.28, 11.18, 10.73, 10.73, 10.28, 9.39, 10.08, 10.04, 10.0, 11.18, 10.73, 12.14, 10.4, 8.53, 6.67, 2.13, 0.0, 0.0, -9.48, -11.52, -15.19, -19.99, -26.74, -21.08, -15.36, -8.44, -5.4, -2.28, -10.79, -14.3, -15.53, -17.88, -17.7, -16.86, -15.27, -15.12, -14.69, -15.2, -16.54, -17.35, -16.44, -14.95, -13.8, -13.44, -13.44, -14.03, -14.03, -13.76, -14.13, -14.29, -14.29, -14.47, -14.47, -14.13, -14.67, -15.19, -15.46, -15.96, -16.12, -16.39, -16.27, -16.22, -16.44, -16.54, -16.31, -11.7, -6.14, -2.72, -0.0, -0.0, 1.94, 3.3, 3.3, 4.66, 4.52, 5.63, 5.63, 7.11, 6.87, 6.63, 8.15, 8.15, 8.85, 9.82, 10.48, 10.88, 11.28, 11.18, 9.2, 3.11, 3.77, 6.69, 9.2, 9.21, 9.97, 10.91, 10.47, 10.47, 10.08, 10.68, 11.62, 11.18, 10.73, 10.18, 9.75, 10.38, 10.84, 11.18, 11.91, 10.79, 11.2, 9.48, 5.6, 1.98, 0.0, 0.0, -6.4, -11.99, -12.39, -15.11, -19.29, -21.19, -17.5, -12.39, -10.55, -6.21, -3.68, -9.48, -12.52, -13.41, -15.61, -15.04, -15.27, -15.34, -14.75, -14.75, -16.09, -16.54, -16.99, -16.47, -15.43, -14.75, -14.75, -14.03, -14.03, -13.76, -13.76, -14.13, -14.29, -14.29, -14.47, -14.47, -14.13, -14.67, -15.19, -15.68, -16.12, -16.12, -16.05, -16.27, -16.22, -16.44, -16.54, -13.23, -8.28, -5.09, -0.0, -0.0, -0.0, 1.68, 3.3, 3.2, 4.66, 5.81, 5.63, 6.2, 7.11, 7.54, 8.15, 8.15, 9.5, 9.82, 9.82, 10.4, 10.88, 10.91, 12.07, 11.84, 6.42, 6.11, 8.34, 9.63, 9.63, 10.46, 10.47, 10.04, 10.04, 10.47, 10.66, 12.07, 11.62, 10.65, 10.75, 11.02, 11.18, 12.07, 12.27, 10.35, 10.12, 9.8, 5.6, 0.0, -3.68, -2.28, -4.66, -13.44, -12.72, -14.11, -18.33, -19.59, -18.24, -18.52, -16.27, -11.2, -5.7, 0.0, 0.0, -9.17, -12.72, -12.89, -15.61, -15.78, -15.12, -16.09, -16.99, -16.48, -16.09, -16.99, -16.76, -16.31, -16.31, -14.03, -14.03, -14.03, -13.76, -14.13, -14.29, -14.29, -13.97, -13.97, -13.97, -14.13, -15.42, -15.19, -15.68, -16.12, -16.05, -16.05, -16.27, -16.46, -16.09, -15.27, -11.38, -9.39, -4.95, -2.21, -0.0, -0.0, 1.68, 3.2, 4.66, 4.52, 6.4, 6.2, 7.11, 7.54, 8.15, 8.85, 9.5, 9.82, 9.82, 10.8, 10.4, 11.03, 10.52, 11.18, 11.03, 9.3, 9.2, 9.63, 10.46, 10.46, 9.63, 10.04, 10.04, 10.66, 10.47, 9.77, 11.18, 11.55, 11.09, 10.62, 11.02, 11.91, 10.79, 10.35, 10.73, 11.16, 10.12, 0.0, -5.9, -2.6, 0.0, -16.09, -16.99, -11.7, 17.19, 19.67, 0.0, -18.22, -20.12, -21.01, -14.31, -3.14, 0.0, 0.0, -6.4, -13.59, -14.19, -15.11, -16.09, -15.65, -15.65, -15.58, -16.93, -16.99, -17.38, -17.23, -17.23, -14.03, -14.03, -13.63, -13.34, -13.76, -14.13, -14.29, -14.29, -13.6, -13.6, -13.97, -14.47, -15.42, -15.42, -15.85, -15.81, -15.68, -16.31, -16.47, -16.54, -15.93, -14.84, -11.06, -8.05, -4.81, -2.15, -1.83, -0.0, 1.58, 3.2, 5.18, 6.4, 6.4, 8.05, 7.79, 8.44, 8.85, 9.5, 10.19, 9.82, 10.48, 10.48, 10.4, 10.46, 10.18, 11.61, 11.09, 10.05, 9.45, 10.46, 10.05, 9.63, 10.04, 10.47, 10.66, 10.66, 10.23, 11.57, 10.73, 11.11, 10.84, 11.03, 10.35, 9.97, 10.35, 9.97, 9.97, 10.79, 8.53, 0.0, 6.64, 9.3, 0.0, -20.39, -0.0, 13.74, 15.49, 14.75, -11.7, -19.67, -21.81, -19.22, -13.02, -2.81, 0.0, 0.0, 0.0, -14.3, -14.16, -14.75, -14.75, -14.75, -15.11, -15.43, -16.05, -16.09, -16.94, -16.94, -13.26, -13.26, -13.63, -13.63, -13.76, -13.76, -14.18, -13.91, -13.91, -13.6, -13.6, -13.97, -14.47, -15.42, -15.85, -15.44, -15.38, -15.68, -16.31, -15.83, -15.65, -15.49, -14.53, -10.75, -7.82, -5.64, -2.43, -0.0, 2.21, 3.01, 5.02, 5.02, 7.1, 8.05, 8.05, 9.48, 9.17, 9.17, 10.19, 10.19, 10.48, 10.04, 10.09, 10.09, 9.7, 9.7, 10.75, 10.32, 10.32, 10.27, 10.05, 9.63, 10.47, 10.47, 10.22, 10.08, 11.12, 11.12, 10.73, 10.23, 11.71, 10.68, 9.97, 9.58, 9.97, 10.0, 9.2, 9.67, 8.85, 10.8, 9.75, 9.6, 4.38, 0.0, -0.0, 7.92, 11.17, 11.62, 13.44, -17.88, -17.56, -16.96, -16.99, -12.52, -4.95, 0.0, 0.0, 0.0, -13.88, -13.86, -13.86, -14.3, -14.64, -14.95, -16.05, -15.65, -16.09, -16.09, -13.26, -13.26, -13.26, -13.63, -13.34, -13.76, -13.76, -13.91, -13.91, -13.46, -13.11, -13.6, -14.47, -15.19, -15.61, -15.58, -15.58, -15.16, -15.38, -15.61, -15.39, -15.65, -14.99, -14.11, -12.16, -6.6, -0.0, 4.52, 3.81, 2.15, 3.25, 5.46, 6.88, 6.88, 8.87, 9.8, 9.48, 10.3, 10.55, 10.41, 10.41, 9.77, 9.42, 9.67, 9.3, 10.0, 10.6, 10.18, 10.18, 10.32, 9.97, 10.04, 10.91, 10.47, 10.22, 10.66, 10.66, 10.68, 10.28, 10.73, 10.52, 9.6, 10.4, 9.96, 10.38, 10.38, 9.96, 9.2, 8.22, 9.17, 10.04, 6.2, 2.28, 3.16, 28.16, 8.97, 9.43, 13.19, 13.86, -10.43, -14.39, -15.52, -17.35, -17.88, -13.59, -7.4, -2.0, 0.0, -5.31, -13.15, -12.96, -13.41, -13.86, -14.23, -14.26, -15.15, -15.2, -15.2, -13.26, -13.26, -13.26, -13.26, -13.63, -13.76, -13.76, -13.76, -13.46, -13.46, -13.46, -13.46, -13.91, -14.75, -14.79, -15.2, -14.94, -15.16, -15.16, -14.95, -15.18, -15.12, -15.2, -14.99, -13.7, -8.18, -0.0, 2.35, 4.05, 3.47, 3.68, 5.28, 6.65, 7.69, 8.87, 8.87, 9.8, 10.65, 10.3, 10.79, 11.6, 10.73, 8.85, 7.54, 9.08, 10.0, 10.6, 10.18, 10.58, 10.62, 10.65, 11.11, 10.66, 10.22, 10.2, 10.28, 10.28, 9.83, 10.28, 10.73, 11.87, 10.38, 10.0, 10.6, 10.08, 10.52, 10.52, 9.96, 11.03, 8.85, 8.85, 3.96, 0.0, 0.0, 10.6, 25.93, -0.0, 4.66, 14.51, -0.0, -14.13, -14.85, -15.91, -16.86, -16.99, -11.38, -5.09, -3.3, -5.63, -10.73, -12.52, -12.52, -12.52, -13.33, -13.36, -14.7, -15.2, -15.2, -13.26, -13.26, -13.26, -13.26, -13.26, -13.34, -13.76, -13.76, -13.76, -13.46, -13.46, -13.46, -13.91, -14.29, -14.36, -14.99, -14.58, -14.94, -15.27, -15.16, -14.95, -14.66, -15.11, -15.2, -14.47, -12.27, -3.47, -0.0, -0.0, 2.35, 3.93, 6.2, 6.0, 7.44, 8.38, 9.8, 10.65, 10.65, 11.16, 11.16, 12.72, 12.71, 10.01, 6.21, 8.53, 9.67, 10.6, 11.02, 11.18, 10.73, 10.73, 11.18, 10.73, 10.2, 10.65, 10.28, 9.83, 9.83, 9.83, 10.22, 9.6, 9.97, 8.58, 9.3, 10.6, 10.6, 10.41, 10.0, 10.0, 8.53, 7.51, 4.38, 0.0, 0.0, 3.86, 4.21, -20.56, -8.8, -0.0, -0.0, -13.61, -15.19, -14.65, -14.75, -15.43, -14.31, -10.43, -9.22, -8.38, -10.01, -12.27, -12.52, -12.52, -12.52, -12.9, -12.92, -14.75, -14.75, -13.14, -13.14, -13.26, -13.26, -13.26, -12.98, -13.76, -13.76, -13.76, -13.46, -13.46, -13.46, -13.46, -13.46, -13.91, -14.59, -14.58, -14.58, -14.94, -14.79, -14.73, -14.42, -14.9, -14.66, -14.75, -14.47, -10.12, -3.47, -0.0, -0.0, 2.81, 4.52, 7.13, 8.38, 8.38, 9.48, 9.48, 11.16, 11.16, 11.99, 12.72, 12.96, 12.96, 7.51, 6.7, 10.04, 11.03, 11.51, 11.18, 11.18, 10.73, 10.73, 10.73, 10.73, 10.28, 9.83, 9.83, 9.83, 9.83, 10.22, 10.04, 8.0, 8.58, 8.23, 9.2, 10.6, 9.2, 8.93, 7.9, 7.9, 7.19, 5.8, 3.79, 0.0, 0.0, 0.0, -12.33, -15.74, -11.04, -13.14, -16.09, -15.2, -13.39, -12.58, -12.89, -12.96, -12.04, -10.73, -8.85, -10.37, -12.58, -12.96, -12.96, -12.96, -12.52, -12.96, -13.86, -13.86, -13.14, -13.14, -13.26, -13.26, -13.26, -13.26, -13.76, -13.76, -13.76, -13.76, -13.01, -13.01, -13.01, -13.46, -13.46, -14.18, -14.2, -14.2, -14.58, -14.94, -14.38, -14.19, -14.42, -14.47, -14.64, -14.75, -13.88, -10.12, -4.52, -0.0, 3.47, 6.4, 8.58, 8.31, 9.8, 9.48, 10.47, 11.16, 11.16, 11.99, 12.72, 12.96, 12.39, 12.58, 6.98, 9.27, 11.09, 11.51, 11.62, 11.18, 11.18, 10.73, 10.66, 10.65, 9.83, 9.83, 9.83, 9.39, 9.76, 9.54, 9.6, 8.58, 7.27, 7.87, 8.58, 9.3, 8.8, 8.55, 8.93, 7.59, 5.2, 5.8, 3.79, 0.0, -0.0, 12.64, 12.39, -5.37, -12.4, -12.4, -15.36, -16.02, -14.23, -12.58, -11.61, -12.96, -13.23, -11.12, -10.37, -10.37, -12.58, -13.41, -13.41, -13.41, -12.96, -12.96, -13.41, -13.41, -13.14, -13.14, -12.89, -12.87, -13.26, -13.26, -12.98, -13.39, -13.76, -13.76, -13.34, -12.65, -12.65, -12.65, -13.46, -13.54, -13.8, -14.2, -14.2, -14.58, -13.99, -14.38, -13.59, -13.86, -13.99, -14.19, -14.3, -14.3, -12.79, -0.0, 6.4, 7.93, 10.12, 10.12, 11.09, 11.09, 11.5, 11.5, 11.99, 11.99, 12.72, 12.83, 12.52, 12.96, 10.38, 9.27, 11.09, 11.98, 11.62, 11.09, 11.09, 10.65, 10.65, 10.2, 9.83, 9.83, 9.39, 9.39, 9.32, 9.54, 9.33, 8.58, 8.58, 7.51, 8.8, 10.18, 8.93, 9.2, 8.93, 7.9, 6.2, 4.1, 3.58, 12.33, 7.63, 8.98, 10.43, 5.64, -5.4, -11.69, -14.13, -14.61, -14.75, -14.31, -13.32, -13.41, -13.67, -11.88, -11.5, -11.99, -13.01, -13.41, -13.41, -13.41, -13.41, -12.96, -13.41, -13.41, -13.14, -13.14, -12.89, -12.52, -12.87, -13.26, -12.98, -12.98, -13.39, -12.98, -12.98, -12.65, -13.01, -13.01, -13.01, -13.46, -13.91, -13.8, -13.8, -13.81, -13.81, -13.59, -13.38, -13.19, -13.19, -13.07, -13.75, -14.03, -14.3, -14.3, -0.0, 10.12, 12.79, 11.9, 11.9, 12.79, 12.39, 12.45, 11.5, 12.45, 12.45, 12.3, 12.83, 12.07, 12.96, 10.68, 11.09, 11.95, 11.62, 11.06, 11.09, 10.65, 10.62, 10.28, 9.83, 9.83, 9.39, 8.94, 9.32, 9.11, 9.54, 8.58, 6.18, 6.95, 9.2, 9.75, 8.8, 8.23, 8.58, 7.9, 5.0, 2.28, 3.36, 7.0, 6.22, 5.82, 8.48, 4.42, -0.0, -7.69, -10.47, -12.72, -12.89, -12.56, -13.44, -14.3, -14.16, -13.99, -12.27, -12.39, -13.44, -13.86, -13.86, -13.86, -13.41, -13.41, -12.96, -13.41, -13.14, -13.14, -12.89, -12.52, -12.52, -12.89, -12.98, -12.98, -12.98, -12.98, -12.98, -13.01, -13.01, -12.56, -13.01, -13.01, -13.46, -13.54, -13.8, -13.42, -12.79, -13.2, -12.56, -12.74, -12.45, -11.9, -12.13, -11.9, -12.79, -12.79, 0.0, 0.0, 14.3, 14.3, 13.57, 13.57, 13.44, 12.39, 12.87, 12.87, 12.45, 12.04, 12.71, 12.35, 12.52, 13.41, 11.18, 11.02, 10.73, 10.73, 10.73, 10.28, 10.28, 10.28, 9.83, 9.39, 9.39, 8.94, 8.85, 9.11, 9.11, 8.91, 9.96, 8.8, 9.33, 9.2, 8.18, 7.59, 7.27, 5.0, 4.32, 2.28, 4.1, 7.69, 15.65, 4.99, 7.37, 3.38, -0.0, -7.13, -11.52, -13.99, -14.42, -15.47, -15.97, -15.2, -14.6, -13.99, -13.7, -13.28, -14.03, -14.3, -13.86, -13.86, -13.41, -12.96, -12.96, -12.96, -13.14, -13.14, -12.52, -12.52, -12.52, -12.89, -12.98, -12.98, -12.98, -12.98, -13.34, -13.01, -12.56, -12.56, -12.56, -13.01, -13.46, -13.1, -13.1, -13.16, -12.79, -12.79, -12.13, -12.27, -11.93, -12.09, -10.77, -10.12, -8.94, -6.4, -4.52, 0.0, 10.12, 14.3, 13.86, 14.3, 14.3, 13.88, 13.88, 13.59, 13.59, 13.15, 12.71, 12.71, 12.79, 12.96, 12.07, 10.73, 10.28, 10.28, 10.28, 9.83, 9.83, 9.83, 9.39, 9.39, 8.94, 8.94, 8.85, 8.85, 9.03, 8.37, 7.6, 7.87, 8.18, 6.95, 7.27, 7.27, 4.6, 4.15, 4.32, 6.71, 7.19, 8.85, 13.99, 13.39, 6.02, -0.0, -4.63, -11.04, -13.28, -15.33, -17.39, -18.08, -17.26, -16.54, -14.6, -13.75, -13.99, -13.28, -14.03, -14.3, -13.86, -13.41, -12.96, -12.96, -12.96, -12.96, -12.76, -12.76, -12.52, -12.52, -12.52, -12.52, -12.98, -12.98, -12.98, -12.98, -13.34, -13.01, -12.56, -12.56, -12.56, -12.56, -12.65, -13.1, -13.1, -12.37, -12.37, -11.69, -11.69, -11.8, -11.42, -10.96, -10.69, -10.12, -8.31, -6.4, -5.31, 0.0, 0.0, 6.4, 12.39, 12.79, 14.3, 14.3, 14.3, 14.3, 13.86, 13.41, 13.41, 12.71, 12.71, 12.96, 12.52, 11.62, 10.73, 10.28, 9.83, 9.83, 9.39, 9.39, 9.39, 8.94, 8.82, 8.41, 8.41, 8.85, 8.6, 8.6, 8.22, 8.58, 7.87, 6.95, 5.7, 5.95, 3.82, 4.15, 5.0, 7.59, 10.4, 11.6, 13.15, 15.2, 12.64, -0.0, -8.47, -14.03, -17.07, -20.7, -22.41, -21.61, -19.67, -16.82, -15.49, -14.18, -13.57, -13.28, -13.59, -13.86, -13.86, -13.41, -12.96, -12.96, -12.96, -12.96, -12.76, -12.76, -12.16, -12.52, -12.52, -12.52, -12.22, -12.62, -12.98, -12.98, -12.98, -12.22, -12.56, -12.22, -12.22, -12.22, -11.83, -11.94, -12.4, -12.05, -11.69, -11.69, -11.69, -11.33, -10.92, -10.12, -10.12, -8.78, -7.58, -7.1, -4.52, -2.81, 0.0, 0.0, 4.52, 10.12, 12.79, 14.3, 14.3, 14.3, 13.86, 13.86, 13.41, 12.96, 12.96, 12.52, 12.52, 12.07, 11.62, 11.18, 10.28, 9.83, 9.83, 9.39, 9.39, 8.38, 8.38, 7.94, 7.94, 8.38, 8.38, 8.48, 8.22, 7.37, 8.58, 5.9, 5.46, 4.2, 3.82, 4.8, 8.22, 8.55, 10.0, 12.14, 13.01, 13.88, 16.09, -0.0, -10.2, -16.48, -22.34, -24.53, -24.07, -23.69, -20.12, -17.7, -16.33, -15.47, -14.42, -12.87, -13.57, -12.52, -12.79, -12.96, -12.96, -12.42, -12.42, -12.42, -12.42, -12.42, -12.16, -12.16, -12.52, -12.16, -12.22, -12.62, -12.62, -12.98, -12.98, -12.22, -12.22, -12.22, -12.22, -11.5, -11.5, -11.5, -11.6, -11.6, -12.05, -10.87, -10.87, -10.43, -10.12, -10.12, -9.57, -8.2, -7.93, -6.4, -5.63, -3.93, 0.0, 0.0, 3.47, 4.52, 10.12, 13.57, 13.57, 13.57, 13.86, 13.41, 13.41, 12.96, 12.96, 12.52, 12.07, 12.07, 11.62, 11.62, 11.18, 10.73, 10.28, 9.83, 9.64, 8.77, 8.77, 8.38, 7.94, 7.94, 8.06, 8.06, 8.0, 8.15, 6.32, 6.17, 4.4, 5.36, 5.9, 7.27, 8.55, 8.93, 9.67, 10.41, 11.16, 7.69, 8.43, 16.09, -9.92, -13.59, -19.9, -27.59, -27.14, -22.57, -21.01, -19.03, -17.62, -16.02, -14.84, -14.31, -13.41, -12.07, -12.35, -12.52, -12.52, -11.95, -11.95, -11.95, -12.42, -12.42, -12.16, -12.16, -12.16, -12.16, -11.87, -12.22, -12.62, -12.62, -12.3, -11.88, -11.88, -11.88, -11.5, -11.5, -11.5, -11.17, -11.17, -11.6, -11.2, -10.87, -10.54, -10.12, -9.62, -9.62, -8.41, -8.2, -7.36, -6.95, -5.02, -3.47, -2.02, 0.0, 0.0, 3.47, 4.52, 10.12, 11.9, 9.8, 12.39, 12.72, 12.72, 12.58, 12.96, 12.52, 12.07, 12.07, 11.4, 11.4, 10.96, 10.52, 10.73, 10.08, 9.64, 9.64, 8.77, 8.33, 7.89, 7.94, 7.63, 8.06, 7.6, 7.76, 6.79, 5.9, 5.21, 6.64, 5.46, 4.4, 7.27, 7.9, 8.22, 6.94, 7.19, 6.0, 4.52, 0.0, -11.38, -13.23, -16.1, -23.19, -25.99, -25.36, -23.25, -19.96, -17.35, -14.65, -13.99, -12.71, -12.27, -12.52, -12.07, -12.07, -12.07, -11.98, -11.98, -11.98, -12.16, -12.16, -12.16, -11.8, -12.16, -12.16, -11.87, -11.87, -11.87, -12.62, -11.88, -11.88, -11.88, -11.5, -11.5, -10.75, -10.75, -11.17, -11.17, -10.75, -10.87, -10.87, -10.12, -10.12, -9.62, -9.06, -8.41, -7.68, -7.36, -6.4, -5.81, -5.02, -1.77, 0.0, 0.0, 0.0, 3.47, 7.93, 7.69, 7.69, 9.48, 12.72, 12.3, 12.58, 12.58, 12.52, 11.84, 11.84, 11.4, 11.4, 10.96, 10.96, 10.52, 10.52, 10.08, 9.64, 9.21, 8.3, 7.89, 7.89, 7.06, 7.47, 7.6, 8.0, 7.28, 8.23, 7.27, 5.46, 5.46, 3.65, 2.02, 4.8, 5.2, 6.7, 5.6, 6.0, 6.2, 6.4, -14.75, -15.18, -14.79, -17.25, -21.95, -27.08, -26.82, -21.46, -16.48, -12.14, -12.46, -12.35, -11.62, -11.84, -11.62, -11.18, -11.18, -10.65, -10.65, -10.65, -11.8, -11.8, -11.8, -11.8, -11.8, -11.52, -11.52, -11.87, -11.87, -11.87, -11.54, -11.54, -11.54, -11.17, -10.75, -10.75, -10.75, -10.75, -10.75, -10.43, -10.43, -10.12, -10.12, -9.62, -9.62, -9.06, -8.41, -7.68, -6.85, -6.4, -5.31, -4.66, -3.58, -2.09, 0.0, 0.0, 2.81, 3.36, 3.36, 4.24, 7.44, 9.17, 10.79, 11.6, 12.14, 12.27, 11.84, 11.21, 10.4, 11.28, 10.84, 10.84, 10.84, 10.41, 9.97, 9.97, 9.13, 8.72, 7.89, 7.47, 7.47, 7.06, 7.47, 7.6, 7.07, 6.98, 6.95, 5.9, 3.65, 1.93, 1.62, 0.0, 5.0, 8.53, 8.85, 7.78, 8.05, 6.0, 0.0, -14.75, -15.18, -14.18, -17.99, -24.07, -27.72, -22.35, -13.01, -9.97, -11.18, -12.39, -11.45, -10.79, -10.18, -10.58, -10.18, -9.76, -9.76, -9.76, -11.8, -11.8, -11.8, -11.8, -11.8, -11.52, -11.52, -11.52, -11.52, -11.54, -11.54, -11.54, -11.54, -11.17, -10.75, -11.06, -10.31, -10.31, -10.01, -10.43, -10.12, -9.67, -10.12, -9.62, -9.62, -9.06, -8.41, -7.68, -6.85, -6.4, -5.48, -4.66, -4.66, -3.58, -2.02, 0.0, 0.0, 2.72, 2.72, 3.25, 3.25, 7.19, 10.79, 11.2, 12.14, 12.27, 10.8, 10.8, 10.4, 10.4, 11.28, 10.0, 10.0, 9.6, 10.41, 9.2, 8.8, 8.4, 8.0, 7.6, 7.2, 7.06, 7.06, 6.9, 6.7, 6.98, 6.64, 7.27, 7.27, 5.29, 3.82, 0.0, 0.0, 6.2, 8.53, 7.51, 7.78, 6.67, 3.36, -6.6, -14.75, -14.31, -15.34, -18.59, -27.1, -19.67, -14.75, -10.41, -10.41, -11.06, -11.18, -11.03, -10.0, -10.18, -9.75, -9.46, -9.46, -9.46, -11.8, -11.44, -11.44, -11.44, -11.44, -11.17, -11.17, -11.52, -11.52, -11.2, -11.2, -11.2, -11.17, -11.5, -11.06, -10.75, -10.31, -10.01, -10.01, -9.7, -9.24, -9.67, -9.67, -9.16, -9.62, -9.06, -8.41, -8.41, -7.92, -7.59, -6.6, -5.48, -4.66, -3.58, -1.77, 0.0, 0.0, 0.0, 0.0, 0.0, 3.25, 7.78, 9.17, 10.01, 11.2, 11.71, 10.8, 9.66, 10.4, 10.4, 10.4, 10.4, 10.0, 9.6, 9.6, 9.2, 8.8, 8.4, 7.15, 8.0, 7.6, 7.2, 6.8, 6.52, 6.52, 5.49, 6.64, 7.81, 7.68, 6.42, 6.7, 6.44, 5.7, 6.95, 6.2, 5.2, 6.44, 4.1, 2.2, 0.0, -12.79, -14.3, -14.3, -16.48, -26.12, -21.9, -17.33, -11.71, -10.75, -11.06, -11.06, -10.75, -11.03, -10.0, -10.18, -9.33, -9.33, -9.33, -11.44, -11.44, -11.44, -11.44, -11.17, -11.17, -11.17, -11.17, -11.17, -11.2, -11.54, -11.54, -11.5, -10.75, -10.75, -10.31, -10.01, -10.01, -9.7, -9.24, -9.24, -9.24, -9.16, -9.16, -8.58, -8.58, -8.41, -8.68, -7.92, -7.06, -6.6, -5.48, -4.66, -3.2, -1.77, 0.0, 0.0, 0.0, 0.0, 0.0, 2.54, 7.78, 7.51, 8.85, 10.01, 10.8, 10.04, 8.53, 8.53, 10.4, 10.4, 10.4, 9.3, 10.0, 9.6, 9.2, 8.8, 6.64, 6.32, 7.15, 6.79, 6.44, 6.44, 6.08, 6.08, 5.93, 8.05, 7.81, 6.95, 5.86, 6.95, 8.03, 9.2, 9.2, 7.27, 5.0, 4.48, 3.96, 0.0, -2.13, -6.0, -0.0, 3.58, -17.46, -24.23, -22.69, -18.33, -14.64, -11.61, -11.61, -11.51, -12.83, -11.03, -10.4, -9.6, -9.2, -9.2, -9.2, -11.09, -11.09, -11.09, -11.09, -11.17, -11.17, -11.17, -11.17, -11.2, -11.54, -11.54, -11.54, -11.17, -10.75, -10.75, -10.01, -10.01, -10.01, -9.7, -9.24, -9.24, -9.24, -8.72, -9.16, -8.58, -8.85, -8.18, -7.92, -7.92, -7.06, -6.1, -5.48, -4.24, -3.1, -1.58, -1.77, 0.0, 0.0, 0.0, 0.0, 4.81, 7.78, 7.51, 7.51, 10.01, 9.66, 8.53, 8.53, 8.53, 10.04, 10.04, 8.53, 8.22, 7.9, 7.59, 7.27, 6.95, 6.64, 6.32, 6.32, 6.01, 5.69, 6.08, 6.08, 6.08, 6.08, 5.93, 4.87, 5.7, 5.7, 6.42, 8.03, 8.03, 8.03, 7.27, 6.44, 4.32, 3.82, 2.06, 0.0, 0.0, 4.38, -0.0, -13.09, -22.74, -21.38, -17.43, -13.41, -11.98, -11.18, -11.06, -11.06, -10.6, -10.6, -9.6, -9.2, -9.2, -9.2, -11.09, -11.09, -11.09, -10.82, -10.82, -11.17, -11.17, -11.52, -11.2, -11.2, -11.2, -11.54, -10.84, -10.43, -10.43, -10.01, -10.01, -10.01, -9.53, -9.24, -9.53, -9.53, -8.99, -8.4, -8.85, -8.18, -8.43, -7.66, -7.43, -7.06, -6.1, -5.04, -4.11, -3.1, -3.1, -1.72, -1.72, -1.72, 0.0, 0.0, 4.81, 4.81, 4.65, 7.51, 8.85, 7.24, 7.24, 5.4, 8.53, 8.53, 8.53, 8.53, 8.22, 7.9, 7.59, 7.27, 6.95, 6.64, 6.32, 6.32, 5.1, 5.69, 5.37, 5.37, 6.44, 5.69, 4.83, 4.14, 5.7, 5.95, 5.52, 6.7, 6.7, 6.42, 5.46, 4.4, 5.52, 4.32, 4.65, 4.65, 6.94, 11.99, -2.66, -13.39, -23.68, -20.4, -16.54, -12.07, -10.65, -10.75, -10.6, -11.46, -11.46, -10.6, -10.6, -8.8, -8.8, -8.8, -11.09, -11.09, -10.82, -10.82, -11.17, -11.17, -11.17, -11.17, -11.2, -11.2, -11.2, -11.2, -10.84, -10.43, -10.43, -10.01, -10.01, -10.01, -9.53, -9.53, -9.53, -8.99, -8.99, -8.65, -8.65, -8.43, -8.43, -7.43, -7.43, -6.6, -6.1, -4.89, -5.31, -4.11, -3.1, -3.01, -1.72, -1.66, 0.0, 2.13, 4.1, 4.81, 4.65, 5.6, 5.6, 5.4, 5.4, 5.4, 6.7, 8.53, 8.53, 7.24, 6.97, 6.71, 6.44, 6.17, 5.9, 4.2, 4.2, 5.36, 5.1, 4.83, 4.83, 4.83, 4.83, 4.83, 5.1, 4.37, 4.71, 4.8, 4.8, 5.52, 5.52, 4.6, 4.6, 4.05, 3.25, 5.75, 5.98, 7.54, 9.77, 10.12, -3.51, -13.13, -23.8, -23.64, -17.7, -14.3, -11.18, -10.38, -10.79, -10.79, -11.03, -11.03, -10.6, -9.75, -9.75, -9.75, -10.82, -10.82, -10.82, -10.82, -10.82, -10.82, -10.82, -11.17, -10.86, -10.86, -10.86, -10.86, -10.84, -10.43, -10.43, -10.01, -10.01, -10.31, -9.82, -9.82, -9.82, -9.27, -9.27, -8.65, -8.65, -8.43, -8.43, -7.43, -7.43, -6.6, -5.92, -5.92, -5.31, -4.11, -4.38, -3.01, -3.01, -1.66, 0.0, 1.83, 2.13, 2.13, 3.96, 4.65, 5.6, 5.6, 4.48, 5.4, 5.4, 6.7, 6.7, 6.97, 6.71, 6.71, 6.44, 6.17, 5.9, 5.9, 4.2, 4.0, 4.0, 5.1, 4.83, 4.83, 4.83, 5.1, 5.1, 4.37, 3.8, 3.25, 4.6, 5.52, 5.29, 4.4, 4.4, 4.4, 5.06, 5.29, 6.44, 8.22, 9.17, 12.39, -0.0, -9.89, -18.33, -21.64, -17.85, -16.99, -12.96, -10.6, -8.22, -9.3, -11.45, -11.46, -11.02, -11.02, -11.02, -11.02, -10.47, -10.47, -10.47, -10.82, -10.82, -10.82, -10.82, -10.82, -10.82, -10.86, -10.86, -11.2, -10.84, -10.43, -10.75, -10.31, -10.31, -10.31, -9.82, -9.82, -9.27, -9.27, -9.27, -8.65, -8.85, -8.43, -8.18, -7.43, -7.21, -6.85, -5.92, -5.92, -5.31, -5.15, -4.38, -4.38, -2.91, -1.66, 0.0, 0.0, 1.83, 2.13, 2.06, 4.65, 4.65, 2.45, 2.37, 5.4, 5.4, 5.4, 5.4, 5.2, 5.0, 5.0, 6.44, 6.17, 5.06, 5.06, 4.83, 4.0, 4.0, 3.8, 4.14, 4.37, 5.1, 5.1, 5.36, 4.6, 4.0, 5.29, 6.42, 6.42, 4.4, 4.2, 4.2, 5.86, 6.64, 6.64, 8.23, 8.22, 8.01, 10.47, 13.19, -5.51, -14.8, -17.31, -16.81, -17.39, -16.09, -13.86, -9.17, -9.17, -12.04, -12.71, -12.52, -12.27, -12.27, -12.27, -10.13, -10.13, -10.13, -10.47, -10.82, -10.82, -10.82, -10.82, -10.82, -10.86, -10.86, -11.2, -10.43, -10.75, -10.75, -10.31, -10.31, -10.31, -9.82, -9.82, -9.27, -8.99, -9.27, -8.65, -8.85, -8.18, -8.18, -7.21, -7.21, -6.85, -6.85, -5.92, -6.4, -5.15, -5.63, -4.24, -2.91, -1.66, 0.0, 0.0, 0.0, 0.0, 2.13, 2.45, 2.45, 2.45, 2.37, 2.93, 5.4, 5.4, 4.32, 5.0, 2.19, 4.8, 4.8, 6.17, 6.17, 5.06, 4.83, 4.6, 3.8, 3.15, 3.15, 3.15, 4.37, 3.15, 3.32, 3.32, 4.0, 4.0, 4.66, 4.4, 4.6, 4.2, 4.83, 5.86, 5.86, 6.14, 5.29, 5.98, 5.6, 9.48, 13.19, -0.0, -10.2, -17.31, -15.8, -17.59, -16.96, -16.54, -16.09, -10.43, -9.48, -12.72, -12.96, -12.96, -12.96, -12.96, -10.13, -10.13, -10.13, -10.13, -10.13, -10.47, -10.82, -10.82, -10.82, -10.86, -10.48, -10.81, -10.81, -10.75, -10.75, -10.31, -10.31, -10.31, -9.82, -9.82, -8.99, -8.99, -9.27, -8.65, -8.85, -8.18, -7.93, -7.21, -7.68, -6.85, -6.85, -6.4, -6.2, -5.15, -5.15, -4.24, -2.91, -1.61, 0.0, 0.0, 0.0, 0.0, 0.0, 2.13, 2.06, 2.06, 2.37, 2.37, 2.93, 2.37, 2.28, 2.19, 2.19, 2.1, 4.6, 4.6, 4.6, 3.65, 4.2, 4.0, 4.6, 3.15, 3.15, 3.15, 2.69, 3.15, 3.32, 3.32, 2.83, 2.83, 2.58, 3.07, 4.6, 4.8, 4.83, 5.06, 5.06, 5.46, 4.6, 4.8, 5.4, 9.17, 13.57, -0.0, -6.64, -14.26, -15.49, -17.63, -17.43, -18.21, -17.88, -16.54, -10.43, -9.17, -9.17, -9.17, -9.17, -9.17, -10.13, -10.13, -10.13, -10.13, -10.13, -10.13, -10.13, -10.82, -10.82, -10.86, -10.48, -10.81, -10.81, -10.43, -10.43, -10.01, -10.01, -10.01, -9.53, -9.53, -8.99, -8.99, -8.99, -8.4, -8.18, -7.93, -7.93, -7.21, -7.68, -6.85, -6.85, -5.73, -6.2, -5.15, -3.85, -4.24, -2.91, -1.43, 0.0, 0.0, 0.0, 0.0, 0.0, 0.0, 0.0, 0.0, 0.0, 2.37, 2.93, 2.28, 1.91, 2.19, 2.19, 3.98, 3.98, 4.6, 2.49, 1.93, 3.49, 2.97, 2.83, 3.15, 3.15, 2.69, 2.69, 2.69, 1.47, 1.75, 1.47, 1.47, 1.33, 2.28, 2.28, 2.28, 1.54, 1.93, 3.11, 5.46, 5.7, 4.8, 5.2, 9.17, 13.15, -0.0, -6.97, -12.88, -17.07, -18.02, -17.63, -18.68, -18.65, -17.43, -16.09, -14.3, -12.96, -11.6, -11.6, -11.6, -10.13, -10.13, -10.13, -10.13, -10.13, -10.13, -10.13, -10.82, -10.82, -10.86, -10.48, -10.81, -10.81, -10.43, -10.43, -10.01, -10.01, -10.01, -9.53, -9.53, -8.99, -8.99, -8.99, -8.4, -8.18, -7.93, -7.93, -7.21, -7.68, -6.85, -6.85, -5.73, -6.2, -5.15, -3.85, -4.24, -2.91, -1.43, 0.0, 0.0, 0.0, 0.0, 0.0, 0.0, 0.0, 0.0, 0.0, 2.37, 2.93, 2.28, 1.91, 2.19, 2.19, 3.98, 3.98, 4.6, 2.49, 1.93, 3.49, 2.97, 2.83, 3.15, 3.15, 2.69, 2.69, 2.69, 1.47, 1.75, 1.47, 1.47, 1.33, 2.28, 2.28, 2.28, 1.54, 1.93, 4.4, 5.46, 5.7, 4.8, 5.2, 8.85, 13.41, 2.81, -3.16, -10.35, -16.75, -18.02, -18.02, -19.93, -19.08, -18.85, -17.43, -15.65, -12.96, -12.96, -12.96, -12.96]}]